Wetterdaten: Freitag, 19.04.2013
Datum Zeit Temp. Aussen +5cm Feuchte Auss Luftdruck Regen Sonnenschein Regendauer UV Solar Windben
19.04.2013 00:00 9,7 C 6,8 C 67 % 1017,9 hPa 0,0 l/m 0 min 0 min 0,0 UV-I 0 W/m 0,0 km/h (0 Bft)
19.04.2013 00:02 9,7 C 6,8 C 67 % 1018,0 hPa 0,0 l/m 0 min 0 min 0,0 UV-I 0 W/m 0,0 km/h (0 Bft)
19.04.2013 00:06 9,6 C 6,8 C 68 % 1018,0 hPa 0,0 l/m 0 min 0 min 0,0 UV-I 0 W/m 0,0 km/h (0 Bft)
19.04.2013 00:08 9,6 C 6,8 C 68 % 1018,0 hPa 0,0 l/m 0 min 0 min 0,0 UV-I 0 W/m 0,0 km/h (0 Bft)
19.04.2013 00:10 9,6 C 6,8 C 68 % 1018,3 hPa 0,0 l/m 0 min 0 min 0,0 UV-I 0 W/m 0,0 km/h (0 Bft)
19.04.2013 00:12 9,6 C 6,8 C 68 % 1018,2 hPa 0,0 l/m 0 min 0 min 0,0 UV-I 0 W/m 0,0 km/h (0 Bft)
19.04.2013 00:14 9,5 C 6,8 C 68 % 1018,2 hPa 0,0 l/m 0 min 0 min 0,0 UV-I 0 W/m 0,0 km/h (0 Bft)
19.04.2013 00:16 9,5 C 6,8 C 69 % 1018,2 hPa 0,0 l/m 0 min 0 min 0,0 UV-I 0 W/m 0,0 km/h (0 Bft)
19.04.2013 00:18 9,4 C 6,8 C 68 % 1018,2 hPa 0,0 l/m 0 min 0 min 0,0 UV-I 0 W/m 0,0 km/h (0 Bft)
19.04.2013 00:20 9,4 C 6,8 C 68 % 1018,2 hPa 0,0 l/m 0 min 0 min 0,0 UV-I 0 W/m 0,0 km/h (0 Bft)
19.04.2013 00:22 9,4 C 6,8 C 68 % 1018,2 hPa 0,0 l/m 0 min 0 min 0,0 UV-I 0 W/m 0,0 km/h (0 Bft)
19.04.2013 00:24 9,3 C 6,2 C 68 % 1018,3 hPa 0,0 l/m 0 min 0 min 0,0 UV-I 0 W/m 0,0 km/h (0 Bft)
19.04.2013 00:26 9,3 C 6,2 C 68 % 1018,2 hPa 0,0 l/m 0 min 0 min 0,0 UV-I 0 W/m 0,0 km/h (0 Bft)
19.04.2013 00:28 9,3 C 6,2 C 69 % 1018,3 hPa 0,0 l/m 0 min 0 min 0,0 UV-I 0 W/m 0,0 km/h (0 Bft)
19.04.2013 00:30 9,3 C 6,2 C 69 % 1018,3 hPa 0,0 l/m 0 min 0 min 0,0 UV-I 0 W/m 0,0 km/h (0 Bft)
19.04.2013 00:32 9,2 C 6,2 C 69 % 1018,4 hPa 0,0 l/m 0 min 0 min 0,0 UV-I 0 W/m 0,0 km/h (0 Bft)
19.04.2013 00:34 9,2 C 6,2 C 69 % 1018,2 hPa 0,0 l/m 0 min 0 min 0,0 UV-I 0 W/m 0,0 km/h (0 Bft)
19.04.2013 00:36 9,2 C 6,2 C 69 % 1018,2 hPa 0,0 l/m 0 min 0 min 0,0 UV-I 0 W/m 0,0 km/h (0 Bft)
19.04.2013 00:38 9,1 C 6,2 C 69 % 1018,2 hPa 0,0 l/m 0 min 0 min 0,0 UV-I 0 W/m 0,0 km/h (0 Bft)
19.04.2013 00:40 9,1 C 6,2 C 70 % 1018,4 hPa 0,0 l/m 0 min 0 min 0,0 UV-I 0 W/m 0,0 km/h (0 Bft)
19.04.2013 00:42 9,1 C 6,2 C 70 % 1018,3 hPa 0,0 l/m 0 min 0 min 0,0 UV-I 0 W/m 0,0 km/h (0 Bft)
19.04.2013 00:44 9,0 C 6,2 C 70 % 1018,3 hPa 0,0 l/m 0 min 0 min 0,0 UV-I 0 W/m 0,0 km/h (0 Bft)
19.04.2013 00:46 8,9 C 6,2 C 71 % 1018,4 hPa 0,0 l/m 0 min 0 min 0,0 UV-I 0 W/m 0,0 km/h (0 Bft)
19.04.2013 00:48 8,9 C 6,2 C 71 % 1018,3 hPa 0,0 l/m 0 min 0 min 0,0 UV-I 0 W/m 0,0 km/h (0 Bft)
19.04.2013 00:50 8,9 C 6,2 C 71 % 1018,4 hPa 0,0 l/m 0 min 0 min 0,0 UV-I 0 W/m 0,0 km/h (0 Bft)
19.04.2013 00:52 8,8 C 6,2 C 71 % 1018,4 hPa 0,0 l/m 0 min 0 min 0,0 UV-I 0 W/m 0,0 km/h (0 Bft)
19.04.2013 00:54 8,8 C 6,2 C 71 % 1018,4 hPa 0,0 l/m 0 min 0 min 0,0 UV-I 0 W/m 0,0 km/h (0 Bft)
19.04.2013 00:56 8,8 C 6,2 C 71 % 1018,4 hPa 0,0 l/m 0 min 0 min 0,0 UV-I 0 W/m 0,0 km/h (0 Bft)
19.04.2013 00:58 8,8 C 6,2 C 72 % 1018,5 hPa 0,0 l/m 0 min 0 min 0,0 UV-I 0 W/m 0,0 km/h (0 Bft)
19.04.2013 01:00 8,8 C 6,2 C 72 % 1018,5 hPa 0,0 l/m 0 min 0 min 0,0 UV-I 0 W/m 0,0 km/h (0 Bft)
19.04.2013 01:02 8,7 C 6,2 C 72 % 1018,5 hPa 0,0 l/m 0 min 0 min 0,0 UV-I 0 W/m 0,0 km/h (0 Bft)
19.04.2013 01:04 8,7 C 6,2 C 72 % 1018,5 hPa 0,0 l/m 0 min 0 min 0,0 UV-I 0 W/m 0,0 km/h (0 Bft)
19.04.2013 01:06 8,7 C 6,2 C 72 % 1018,6 hPa 0,0 l/m 0 min 0 min 0,0 UV-I 0 W/m 0,0 km/h (0 Bft)
19.04.2013 01:08 8,7 C 6,2 C 72 % 1018,6 hPa 0,0 l/m 0 min 0 min 0,0 UV-I 0 W/m 0,0 km/h (0 Bft)
19.04.2013 01:10 8,7 C 6,8 C 72 % 1018,6 hPa 0,0 l/m 0 min 0 min 0,0 UV-I 0 W/m 7,7 km/h (2 Bft)
19.04.2013 01:12 8,7 C 7,3 C 72 % 1018,7 hPa 0,0 l/m 0 min 0 min 0,0 UV-I 0 W/m 2,6 km/h (1 Bft)
19.04.2013 01:14 8,7 C 7,9 C 72 % 1018,7 hPa 0,0 l/m 0 min 0 min 0,0 UV-I 0 W/m 0,0 km/h (0 Bft)
19.04.2013 01:16 8,8 C 7,9 C 72 % 1018,7 hPa 0,0 l/m 0 min 0 min 0,0 UV-I 0 W/m 5,1 km/h (1 Bft)
19.04.2013 01:18 8,8 C 7,9 C 72 % 1018,7 hPa 0,0 l/m 0 min 0 min 0,0 UV-I 0 W/m 7,7 km/h (2 Bft)
19.04.2013 01:20 8,9 C 7,9 C 72 % 1018,8 hPa 0,0 l/m 0 min 0 min 0,0 UV-I 0 W/m 2,6 km/h (1 Bft)
19.04.2013 01:22 8,9 C 7,9 C 72 % 1018,8 hPa 0,0 l/m 0 min 0 min 0,0 UV-I 0 W/m 12,9 km/h (3 Bft)
19.04.2013 01:24 9,1 C 8,4 C 72 % 1018,9 hPa 0,0 l/m 0 min 0 min 0,0 UV-I 0 W/m 15,4 km/h (3 Bft)
19.04.2013 01:26 9,2 C 8,4 C 72 % 1018,9 hPa 0,0 l/m 0 min 0 min 0,0 UV-I 0 W/m 7,7 km/h (2 Bft)
19.04.2013 01:28 9,3 C 8,4 C 71 % 1018,8 hPa 0,0 l/m 0 min 0 min 0,0 UV-I 0 W/m 18,0 km/h (3 Bft)
19.04.2013 01:30 9,4 C 9,0 C 71 % 1018,9 hPa 0,0 l/m 0 min 0 min 0,0 UV-I 0 W/m 7,7 km/h (2 Bft)
19.04.2013 01:32 9,6 C 9,0 C 71 % 1018,9 hPa 0,0 l/m 0 min 0 min 0,0 UV-I 0 W/m 15,4 km/h (3 Bft)
19.04.2013 01:34 9,7 C 9,0 C 70 % 1019,0 hPa 0,0 l/m 0 min 0 min 0,0 UV-I 0 W/m 7,7 km/h (2 Bft)
19.04.2013 01:36 9,8 C 9,0 C 70 % 1018,9 hPa 0,0 l/m 0 min 0 min 0,0 UV-I 0 W/m 5,1 km/h (1 Bft)
19.04.2013 01:38 9,9 C 9,0 C 70 % 1018,9 hPa 0,0 l/m 0 min 0 min 0,0 UV-I 0 W/m 2,6 km/h (1 Bft)
19.04.2013 01:40 9,9 C 9,0 C 70 % 1019,0 hPa 0,0 l/m 0 min 0 min 0,0 UV-I 0 W/m 12,9 km/h (3 Bft)
19.04.2013 01:42 10,1 C 9,6 C 69 % 1019,0 hPa 0,0 l/m 0 min 0 min 0,0 UV-I 0 W/m 15,4 km/h (3 Bft)
19.04.2013 01:44 10,2 C 9,6 C 69 % 1019,0 hPa 0,0 l/m 0 min 0 min 0,0 UV-I 0 W/m 10,3 km/h (2 Bft)
19.04.2013 01:46 10,2 C 9,6 C 69 % 1019,0 hPa 0,0 l/m 0 min 0 min 0,0 UV-I 0 W/m 15,4 km/h (3 Bft)
19.04.2013 01:48 10,3 C 9,6 C 69 % 1019,0 hPa 0,0 l/m 0 min 0 min 0,0 UV-I 0 W/m 2,6 km/h (1 Bft)
19.04.2013 01:50 10,3 C 9,6 C 69 % 1018,9 hPa 0,0 l/m 0 min 0 min 0,0 UV-I 0 W/m 7,7 km/h (2 Bft)
19.04.2013 01:52 10,3 C 9,0 C 69 % 1018,9 hPa 0,0 l/m 0 min 2 min 0,0 UV-I 0 W/m 15,4 km/h (3 Bft)
19.04.2013 01:54 10,4 C 9,0 C 69 % 1018,9 hPa 0,0 l/m 0 min 0 min 0,0 UV-I 0 W/m 7,7 km/h (2 Bft)
19.04.2013 01:56 10,4 C 9,0 C 69 % 1018,9 hPa 0,0 l/m 0 min 0 min 0,0 UV-I 0 W/m 7,7 km/h (2 Bft)
19.04.2013 01:58 10,4 C 9,0 C 70 % 1018,9 hPa 0,0 l/m 0 min 0 min 0,0 UV-I 0 W/m 0,0 km/h (0 Bft)
19.04.2013 02:00 10,4 C 9,0 C 70 % 1018,9 hPa 0,0 l/m 0 min 0 min 0,0 UV-I 0 W/m 0,0 km/h (0 Bft)
19.04.2013 02:02 10,4 C 9,0 C 70 % 1019,0 hPa 0,0 l/m 0 min 0 min 0,0 UV-I 0 W/m 2,6 km/h (1 Bft)
19.04.2013 02:04 10,4 C 9,0 C 69 % 1019,0 hPa 0,0 l/m 0 min 0 min 0,0 UV-I 0 W/m 0,0 km/h (0 Bft)
19.04.2013 02:06 10,3 C 9,0 C 69 % 1019,0 hPa 0,0 l/m 0 min 0 min 0,0 UV-I 0 W/m 10,3 km/h (2 Bft)
19.04.2013 02:08 10,3 C 9,0 C 69 % 1019,0 hPa 0,0 l/m 0 min 0 min 0,0 UV-I 0 W/m 2,6 km/h (1 Bft)
19.04.2013 02:10 10,3 C 8,4 C 69 % 1019,0 hPa 0,0 l/m 0 min 0 min 0,0 UV-I 0 W/m 0,0 km/h (0 Bft)
19.04.2013 02:12 10,3 C 8,4 C 69 % 1019,0 hPa 0,0 l/m 0 min 0 min 0,0 UV-I 0 W/m 0,0 km/h (0 Bft)
19.04.2013 02:14 10,3 C 8,4 C 69 % 1019,0 hPa 0,0 l/m 0 min 0 min 0,0 UV-I 0 W/m 5,1 km/h (1 Bft)
19.04.2013 02:16 10,2 C 8,4 C 69 % 1019,0 hPa 0,0 l/m 0 min 0 min 0,0 UV-I 0 W/m 7,7 km/h (2 Bft)
19.04.2013 02:18 10,2 C 8,4 C 69 % 1019,1 hPa 0,0 l/m 0 min 0 min 0,0 UV-I 0 W/m 2,6 km/h (1 Bft)
19.04.2013 02:20 10,2 C 8,4 C 69 % 1019,1 hPa 0,0 l/m 0 min 0 min 0,0 UV-I 0 W/m 0,0 km/h (0 Bft)
19.04.2013 02:22 10,2 C 7,9 C 69 % 1019,1 hPa 0,0 l/m 0 min 0 min 0,0 UV-I 0 W/m 0,0 km/h (0 Bft)
19.04.2013 02:24 10,1 C 7,9 C 69 % 1019,2 hPa 0,0 l/m 0 min 0 min 0,0 UV-I 0 W/m 0,0 km/h (0 Bft)
19.04.2013 02:26 10,1 C 7,9 C 69 % 1019,2 hPa 0,0 l/m 0 min 0 min 0,0 UV-I 0 W/m 0,0 km/h (0 Bft)
19.04.2013 02:28 10,1 C 7,9 C 70 % 1019,2 hPa 0,0 l/m 0 min 0 min 0,0 UV-I 0 W/m 2,6 km/h (1 Bft)
19.04.2013 02:30 10,0 C 7,9 C 70 % 1019,2 hPa 0,0 l/m 0 min 0 min 0,0 UV-I 0 W/m 0,0 km/h (0 Bft)
19.04.2013 02:32 9,9 C 7,9 C 70 % 1019,2 hPa 0,0 l/m 0 min 0 min 0,0 UV-I 0 W/m 0,0 km/h (0 Bft)
19.04.2013 02:34 9,9 C 7,9 C 70 % 1019,3 hPa 0,0 l/m 0 min 0 min 0,0 UV-I 0 W/m 0,0 km/h (0 Bft)
19.04.2013 02:36 9,9 C 7,9 C 70 % 1019,3 hPa 0,0 l/m 0 min 0 min 0,0 UV-I 0 W/m 0,0 km/h (0 Bft)
19.04.2013 02:38 9,9 C 7,3 C 70 % 1019,3 hPa 0,0 l/m 0 min 0 min 0,0 UV-I 0 W/m 0,0 km/h (0 Bft)
19.04.2013 02:40 9,8 C 7,3 C 70 % 1019,2 hPa 0,0 l/m 0 min 0 min 0,0 UV-I 0 W/m 0,0 km/h (0 Bft)
19.04.2013 02:42 9,8 C 7,3 C 70 % 1019,3 hPa 0,0 l/m 0 min 0 min 0,0 UV-I 0 W/m 0,0 km/h (0 Bft)
19.04.2013 02:44 9,8 C 7,3 C 70 % 1019,4 hPa 0,0 l/m 0 min 0 min 0,0 UV-I 0 W/m 0,0 km/h (0 Bft)
19.04.2013 02:46 9,7 C 7,3 C 70 % 1019,5 hPa 0,0 l/m 0 min 0 min 0,0 UV-I 0 W/m 0,0 km/h (0 Bft)
19.04.2013 02:48 9,7 C 7,3 C 71 % 1019,5 hPa 0,0 l/m 0 min 0 min 0,0 UV-I 0 W/m 20,6 km/h (4 Bft)
19.04.2013 02:50 9,6 C 7,9 C 72 % 1019,5 hPa 0,0 l/m 0 min 0 min 0,0 UV-I 0 W/m 36,0 km/h (5 Bft)
19.04.2013 02:52 9,6 C 7,9 C 72 % 1019,6 hPa 0,0 l/m 0 min 0 min 0,0 UV-I 0 W/m 15,4 km/h (3 Bft)
19.04.2013 02:54 9,6 C 7,9 C 72 % 1019,5 hPa 0,0 l/m 0 min 0 min 0,0 UV-I 0 W/m 12,9 km/h (3 Bft)
19.04.2013 02:56 9,6 C 8,4 C 72 % 1019,5 hPa 0,0 l/m 0 min 0 min 0,0 UV-I 0 W/m 18,0 km/h (3 Bft)
19.04.2013 02:58 9,6 C 8,4 C 72 % 1019,5 hPa 0,0 l/m 0 min 0 min 0,0 UV-I 0 W/m 12,9 km/h (3 Bft)
19.04.2013 03:00 9,6 C 8,4 C 72 % 1019,5 hPa 0,0 l/m 0 min 0 min 0,0 UV-I 0 W/m 10,3 km/h (2 Bft)
19.04.2013 03:02 9,6 C 7,9 C 72 % 1019,4 hPa 0,0 l/m 0 min 0 min 0,0 UV-I 0 W/m 5,1 km/h (1 Bft)
19.04.2013 03:06 9,6 C 7,9 C 72 % 1019,6 hPa 0,0 l/m 0 min 0 min 0,0 UV-I 0 W/m 12,9 km/h (3 Bft)
19.04.2013 03:08 9,5 C 7,9 C 73 % 1019,5 hPa 0,0 l/m 0 min 0 min 0,0 UV-I 0 W/m 7,7 km/h (2 Bft)
19.04.2013 03:10 9,5 C 7,9 C 73 % 1019,5 hPa 0,0 l/m 0 min 0 min 0,0 UV-I 0 W/m 5,1 km/h (1 Bft)
19.04.2013 03:12 9,4 C 7,9 C 73 % 1019,4 hPa 0,0 l/m 0 min 0 min 0,0 UV-I 0 W/m 0,0 km/h (0 Bft)
19.04.2013 03:14 9,4 C 7,9 C 73 % 1019,5 hPa 0,0 l/m 0 min 0 min 0,0 UV-I 0 W/m 0,0 km/h (0 Bft)
19.04.2013 03:16 9,4 C 7,9 C 73 % 1019,5 hPa 0,0 l/m 0 min 0 min 0,0 UV-I 0 W/m 7,7 km/h (2 Bft)
19.04.2013 03:18 9,4 C 7,9 C 73 % 1019,5 hPa 0,0 l/m 0 min 0 min 0,0 UV-I 0 W/m 2,6 km/h (1 Bft)
19.04.2013 03:20 9,3 C 7,3 C 73 % 1019,5 hPa 0,0 l/m 0 min 0 min 0,0 UV-I 0 W/m 0,0 km/h (0 Bft)
19.04.2013 03:22 9,3 C 7,3 C 73 % 1019,6 hPa 0,0 l/m 0 min 0 min 0,0 UV-I 0 W/m 2,6 km/h (1 Bft)
19.04.2013 03:24 9,3 C 7,3 C 73 % 1019,6 hPa 0,0 l/m 0 min 0 min 0,0 UV-I 0 W/m 0,0 km/h (0 Bft)
19.04.2013 03:26 9,3 C 7,3 C 73 % 1019,6 hPa 0,0 l/m 0 min 0 min 0,0 UV-I 0 W/m 0,0 km/h (0 Bft)
19.04.2013 03:28 9,2 C 7,3 C 73 % 1019,6 hPa 0,0 l/m 0 min 0 min 0,0 UV-I 0 W/m 7,7 km/h (2 Bft)
19.04.2013 03:30 9,2 C 7,3 C 74 % 1019,7 hPa 0,0 l/m 0 min 0 min 0,0 UV-I 0 W/m 0,0 km/h (0 Bft)
19.04.2013 03:32 9,2 C 7,3 C 74 % 1019,7 hPa 0,0 l/m 0 min 0 min 0,0 UV-I 0 W/m 5,1 km/h (1 Bft)
19.04.2013 03:34 9,2 C 7,3 C 74 % 1019,7 hPa 0,0 l/m 0 min 0 min 0,0 UV-I 0 W/m 10,3 km/h (2 Bft)
19.04.2013 03:36 9,1 C 7,3 C 75 % 1019,7 hPa 0,0 l/m 0 min 0 min 0,0 UV-I 0 W/m 7,7 km/h (2 Bft)
19.04.2013 03:38 9,1 C 7,3 C 75 % 1019,7 hPa 0,0 l/m 0 min 0 min 0,0 UV-I 0 W/m 12,9 km/h (3 Bft)
19.04.2013 03:40 9,1 C 7,3 C 75 % 1019,7 hPa 0,0 l/m 0 min 0 min 0,0 UV-I 0 W/m 12,9 km/h (3 Bft)
19.04.2013 03:42 9,0 C 7,3 C 76 % 1019,8 hPa 0,0 l/m 0 min 0 min 0,0 UV-I 0 W/m 7,7 km/h (2 Bft)
19.04.2013 03:44 8,9 C 7,3 C 76 % 1019,8 hPa 0,0 l/m 0 min 0 min 0,0 UV-I 0 W/m 7,7 km/h (2 Bft)
19.04.2013 03:46 8,9 C 7,3 C 76 % 1019,7 hPa 0,0 l/m 0 min 0 min 0,0 UV-I 0 W/m 0,0 km/h (0 Bft)
19.04.2013 03:48 8,9 C 7,3 C 76 % 1019,7 hPa 0,0 l/m 0 min 0 min 0,0 UV-I 0 W/m 23,2 km/h (4 Bft)
19.04.2013 03:50 8,9 C 7,3 C 77 % 1019,8 hPa 0,0 l/m 0 min 0 min 0,0 UV-I 0 W/m 12,9 km/h (3 Bft)
19.04.2013 03:52 8,9 C 7,3 C 77 % 1019,7 hPa 0,0 l/m 0 min 0 min 0,0 UV-I 0 W/m 10,3 km/h (2 Bft)
19.04.2013 03:54 8,8 C 7,3 C 77 % 1019,8 hPa 0,0 l/m 0 min 0 min 0,0 UV-I 0 W/m 2,6 km/h (1 Bft)
19.04.2013 03:56 8,8 C 7,3 C 77 % 1019,8 hPa 0,0 l/m 0 min 0 min 0,0 UV-I 0 W/m 18,0 km/h (3 Bft)
19.04.2013 03:58 8,8 C 7,3 C 77 % 1019,8 hPa 0,0 l/m 0 min 0 min 0,0 UV-I 0 W/m 10,3 km/h (2 Bft)
19.04.2013 04:00 8,8 C 7,3 C 77 % 1019,9 hPa 0,0 l/m 0 min 0 min 0,0 UV-I 0 W/m 10,3 km/h (2 Bft)
19.04.2013 04:02 8,8 C 7,3 C 77 % 1019,8 hPa 0,0 l/m 0 min 0 min 0,0 UV-I 0 W/m 10,3 km/h (2 Bft)
19.04.2013 04:04 8,7 C 7,3 C 77 % 1019,8 hPa 0,0 l/m 0 min 0 min 0,0 UV-I 0 W/m 12,9 km/h (3 Bft)
19.04.2013 04:06 8,7 C 7,3 C 77 % 1019,9 hPa 0,0 l/m 0 min 0 min 0,0 UV-I 0 W/m 7,7 km/h (2 Bft)
19.04.2013 04:08 8,7 C 7,3 C 77 % 1019,9 hPa 0,0 l/m 0 min 0 min 0,0 UV-I 0 W/m 12,9 km/h (3 Bft)
19.04.2013 04:10 8,7 C 7,3 C 77 % 1019,9 hPa 0,0 l/m 0 min 0 min 0,0 UV-I 0 W/m 10,3 km/h (2 Bft)
19.04.2013 04:12 8,7 C 7,3 C 77 % 1019,9 hPa 0,0 l/m 0 min 0 min 0,0 UV-I 0 W/m 0,0 km/h (0 Bft)
19.04.2013 04:14 8,6 C 7,3 C 77 % 1019,9 hPa 0,0 l/m 0 min 0 min 0,0 UV-I 0 W/m 10,3 km/h (2 Bft)
19.04.2013 04:16 8,6 C 6,8 C 77 % 1019,9 hPa 0,0 l/m 0 min 0 min 0,0 UV-I 0 W/m 7,7 km/h (2 Bft)
19.04.2013 04:18 8,6 C 7,3 C 78 % 1019,9 hPa 0,0 l/m 0 min 0 min 0,0 UV-I 0 W/m 10,3 km/h (2 Bft)
19.04.2013 04:20 8,6 C 7,3 C 78 % 1019,9 hPa 0,0 l/m 0 min 0 min 0,0 UV-I 0 W/m 10,3 km/h (2 Bft)
19.04.2013 04:22 8,5 C 7,3 C 78 % 1019,9 hPa 0,0 l/m 0 min 0 min 0,0 UV-I 0 W/m 5,1 km/h (1 Bft)
19.04.2013 04:24 8,5 C 7,3 C 78 % 1020,0 hPa 0,0 l/m 0 min 0 min 0,0 UV-I 0 W/m 12,9 km/h (3 Bft)
19.04.2013 04:26 8,4 C 7,3 C 78 % 1020,0 hPa 0,0 l/m 0 min 0 min 0,0 UV-I 0 W/m 7,7 km/h (2 Bft)
19.04.2013 04:28 8,4 C 7,3 C 78 % 1019,9 hPa 0,0 l/m 0 min 0 min 0,0 UV-I 0 W/m 7,7 km/h (2 Bft)
19.04.2013 04:30 8,4 C 6,8 C 78 % 1020,0 hPa 0,0 l/m 0 min 0 min 0,0 UV-I 0 W/m 7,7 km/h (2 Bft)
19.04.2013 04:32 8,4 C 6,8 C 78 % 1020,0 hPa 0,0 l/m 0 min 0 min 0,0 UV-I 0 W/m 15,4 km/h (3 Bft)
19.04.2013 04:34 8,4 C 6,8 C 78 % 1020,0 hPa 0,0 l/m 0 min 0 min 0,0 UV-I 0 W/m 2,6 km/h (1 Bft)
19.04.2013 04:36 8,3 C 6,8 C 78 % 1020,0 hPa 0,0 l/m 0 min 0 min 0,0 UV-I 0 W/m 2,6 km/h (1 Bft)
19.04.2013 04:38 8,3 C 6,8 C 78 % 1020,0 hPa 0,0 l/m 0 min 0 min 0,0 UV-I 0 W/m 10,3 km/h (2 Bft)
19.04.2013 04:40 8,3 C 6,8 C 78 % 1019,9 hPa 0,0 l/m 0 min 0 min 0,0 UV-I 0 W/m 0,0 km/h (0 Bft)
19.04.2013 04:42 8,3 C 6,8 C 79 % 1020,0 hPa 0,0 l/m 0 min 0 min 0,0 UV-I 0 W/m 0,0 km/h (0 Bft)
19.04.2013 04:44 8,3 C 6,8 C 79 % 1020,0 hPa 0,0 l/m 0 min 0 min 0,0 UV-I 0 W/m 7,7 km/h (2 Bft)
19.04.2013 04:46 8,3 C 6,8 C 79 % 1020,0 hPa 0,0 l/m 0 min 0 min 0,0 UV-I 0 W/m 2,6 km/h (1 Bft)
19.04.2013 04:48 8,2 C 6,8 C 79 % 1020,0 hPa 0,0 l/m 0 min 0 min 0,0 UV-I 0 W/m 2,6 km/h (1 Bft)
19.04.2013 04:50 8,2 C 6,8 C 79 % 1020,1 hPa 0,0 l/m 0 min 0 min 0,0 UV-I 0 W/m 0,0 km/h (0 Bft)
19.04.2013 04:52 8,2 C 6,8 C 79 % 1020,1 hPa 0,0 l/m 0 min 0 min 0,0 UV-I 0 W/m 7,7 km/h (2 Bft)
19.04.2013 04:54 8,2 C 6,8 C 79 % 1020,1 hPa 0,0 l/m 0 min 0 min 0,0 UV-I 0 W/m 7,7 km/h (2 Bft)
19.04.2013 04:56 8,2 C 6,8 C 79 % 1020,1 hPa 0,0 l/m 0 min 0 min 0,0 UV-I 0 W/m 7,7 km/h (2 Bft)
19.04.2013 04:58 8,1 C 6,8 C 79 % 1020,1 hPa 0,0 l/m 0 min 0 min 0,0 UV-I 0 W/m 7,7 km/h (2 Bft)
19.04.2013 05:00 8,1 C 6,8 C 79 % 1020,2 hPa 0,0 l/m 0 min 0 min 0,0 UV-I 0 W/m 7,7 km/h (2 Bft)
19.04.2013 05:02 8,1 C 6,8 C 79 % 1020,1 hPa 0,0 l/m 0 min 0 min 0,0 UV-I 0 W/m 7,7 km/h (2 Bft)
19.04.2013 05:04 8,1 C 6,8 C 79 % 1020,2 hPa 0,0 l/m 0 min 0 min 0,0 UV-I 0 W/m 2,6 km/h (1 Bft)
19.04.2013 05:06 8,1 C 6,8 C 80 % 1020,2 hPa 0,0 l/m 0 min 0 min 0,0 UV-I 0 W/m 5,1 km/h (1 Bft)
19.04.2013 05:08 8,1 C 6,8 C 80 % 1020,3 hPa 0,0 l/m 0 min 0 min 0,0 UV-I 0 W/m 7,7 km/h (2 Bft)
19.04.2013 05:10 8,1 C 6,8 C 80 % 1020,3 hPa 0,0 l/m 0 min 0 min 0,0 UV-I 0 W/m 7,7 km/h (2 Bft)
19.04.2013 05:12 8,0 C 6,8 C 80 % 1020,3 hPa 0,0 l/m 0 min 0 min 0,0 UV-I 0 W/m 5,1 km/h (1 Bft)
19.04.2013 05:14 8,0 C 6,8 C 80 % 1020,3 hPa 0,0 l/m 0 min 0 min 0,0 UV-I 0 W/m 7,7 km/h (2 Bft)
19.04.2013 05:16 7,9 C 6,8 C 80 % 1020,3 hPa 0,0 l/m 0 min 0 min 0,0 UV-I 0 W/m 12,9 km/h (3 Bft)
19.04.2013 05:18 7,9 C 6,8 C 80 % 1020,3 hPa 0,0 l/m 0 min 0 min 0,0 UV-I 0 W/m 2,6 km/h (1 Bft)
19.04.2013 05:20 7,9 C 6,8 C 80 % 1020,3 hPa 0,0 l/m 0 min 0 min 0,0 UV-I 0 W/m 12,9 km/h (3 Bft)
19.04.2013 05:22 7,9 C 6,8 C 80 % 1020,3 hPa 0,0 l/m 0 min 0 min 0,0 UV-I 0 W/m 0,0 km/h (0 Bft)
19.04.2013 05:24 7,9 C 6,8 C 81 % 1020,3 hPa 0,0 l/m 0 min 0 min 0,0 UV-I 0 W/m 10,3 km/h (2 Bft)
19.04.2013 05:26 7,9 C 6,8 C 81 % 1020,3 hPa 0,0 l/m 0 min 0 min 0,0 UV-I 0 W/m 10,3 km/h (2 Bft)
19.04.2013 05:28 7,9 C 6,8 C 81 % 1020,3 hPa 0,0 l/m 0 min 0 min 0,0 UV-I 0 W/m 15,4 km/h (3 Bft)
19.04.2013 05:30 7,9 C 6,8 C 81 % 1020,4 hPa 0,0 l/m 0 min 0 min 0,0 UV-I 0 W/m 10,3 km/h (2 Bft)
19.04.2013 05:32 7,8 C 6,2 C 81 % 1020,3 hPa 0,0 l/m 0 min 0 min 0,0 UV-I 0 W/m 2,6 km/h (1 Bft)
19.04.2013 05:34 7,8 C 6,2 C 81 % 1020,3 hPa 0,0 l/m 0 min 0 min 0,0 UV-I 0 W/m 0,0 km/h (0 Bft)
19.04.2013 05:36 7,8 C 6,2 C 81 % 1020,3 hPa 0,0 l/m 0 min 0 min 0,0 UV-I 0 W/m 12,9 km/h (3 Bft)
19.04.2013 05:38 7,8 C 6,2 C 81 % 1020,3 hPa 0,0 l/m 0 min 0 min 0,0 UV-I 0 W/m 2,6 km/h (1 Bft)
19.04.2013 05:40 7,8 C 6,2 C 81 % 1020,3 hPa 0,0 l/m 0 min 0 min 0,0 UV-I 0 W/m 0,0 km/h (0 Bft)
19.04.2013 05:42 7,8 C 6,2 C 81 % 1020,2 hPa 0,0 l/m 0 min 0 min 0,0 UV-I 0 W/m 12,9 km/h (3 Bft)
19.04.2013 05:44 7,7 C 6,2 C 81 % 1020,3 hPa 0,0 l/m 0 min 0 min 0,0 UV-I 0 W/m 5,1 km/h (1 Bft)
19.04.2013 05:46 7,7 C 6,2 C 82 % 1020,4 hPa 0,0 l/m 0 min 0 min 0,0 UV-I 0 W/m 7,7 km/h (2 Bft)
19.04.2013 05:48 7,7 C 6,2 C 82 % 1020,4 hPa 0,0 l/m 0 min 0 min 0,0 UV-I 0 W/m 2,6 km/h (1 Bft)
19.04.2013 05:50 7,7 C 6,2 C 82 % 1020,4 hPa 0,0 l/m 0 min 0 min 0,0 UV-I 0 W/m 12,9 km/h (3 Bft)
19.04.2013 05:52 7,7 C 6,2 C 82 % 1020,4 hPa 0,0 l/m 0 min 0 min 0,0 UV-I 0 W/m 0,0 km/h (0 Bft)
19.04.2013 05:54 7,6 C 6,2 C 82 % 1020,4 hPa 0,0 l/m 0 min 0 min 0,0 UV-I 0 W/m 10,3 km/h (2 Bft)
19.04.2013 05:56 7,6 C 6,2 C 82 % 1020,4 hPa 0,0 l/m 0 min 0 min 0,0 UV-I 0 W/m 2,6 km/h (1 Bft)
19.04.2013 05:58 7,6 C 6,2 C 82 % 1020,5 hPa 0,0 l/m 0 min 0 min 0,0 UV-I 0 W/m 5,1 km/h (1 Bft)
19.04.2013 06:00 7,6 C 6,2 C 82 % 1020,4 hPa 0,0 l/m 0 min 0 min 0,0 UV-I 0 W/m 7,7 km/h (2 Bft)
19.04.2013 06:02 7,5 C 6,2 C 82 % 1020,4 hPa 0,0 l/m 0 min 0 min 0,0 UV-I 0 W/m 0,0 km/h (0 Bft)
19.04.2013 06:04 7,5 C 6,2 C 83 % 1020,4 hPa 0,0 l/m 0 min 0 min 0,0 UV-I 0 W/m 0,0 km/h (0 Bft)
19.04.2013 06:06 7,4 C 5,7 C 83 % 1020,4 hPa 0,0 l/m 0 min 0 min 0,0 UV-I 0 W/m 0,0 km/h (0 Bft)
19.04.2013 06:08 7,4 C 5,7 C 83 % 1020,4 hPa 0,0 l/m 0 min 0 min 0,0 UV-I 0 W/m 12,9 km/h (3 Bft)
19.04.2013 06:10 7,4 C 5,7 C 83 % 1020,4 hPa 0,0 l/m 0 min 0 min 0,0 UV-I 0 W/m 0,0 km/h (0 Bft)
19.04.2013 06:12 7,4 C 5,7 C 83 % 1020,4 hPa 0,0 l/m 0 min 0 min 0,0 UV-I 0 W/m 2,6 km/h (1 Bft)
19.04.2013 06:14 7,3 C 5,7 C 83 % 1020,4 hPa 0,0 l/m 0 min 0 min 0,0 UV-I 0 W/m 7,7 km/h (2 Bft)
19.04.2013 06:16 7,3 C 5,7 C 83 % 1020,4 hPa 0,0 l/m 0 min 0 min 0,0 UV-I 0 W/m 5,1 km/h (1 Bft)
19.04.2013 06:18 7,3 C 5,7 C 83 % 1020,4 hPa 0,0 l/m 0 min 0 min 0,0 UV-I 0 W/m 7,7 km/h (2 Bft)
19.04.2013 06:20 7,3 C 5,7 C 83 % 1020,4 hPa 0,0 l/m 0 min 0 min 0,0 UV-I 0 W/m 2,6 km/h (1 Bft)
19.04.2013 06:22 7,2 C 5,7 C 83 % 1020,4 hPa 0,0 l/m 0 min 0 min 0,0 UV-I 0 W/m 5,1 km/h (1 Bft)
19.04.2013 06:24 7,2 C 5,7 C 83 % 1020,4 hPa 0,0 l/m 0 min 0 min 0,0 UV-I 0 W/m 10,3 km/h (2 Bft)
19.04.2013 06:26 7,2 C 5,7 C 84 % 1020,4 hPa 0,0 l/m 0 min 0 min 0,0 UV-I 0 W/m 7,7 km/h (2 Bft)
19.04.2013 06:28 7,2 C 5,7 C 84 % 1020,5 hPa 0,0 l/m 0 min 0 min 0,0 UV-I 0 W/m 7,7 km/h (2 Bft)
19.04.2013 06:30 7,2 C 5,7 C 84 % 1020,4 hPa 0,0 l/m 0 min 0 min 0,0 UV-I 0 W/m 12,9 km/h (3 Bft)
19.04.2013 06:32 7,2 C 5,7 C 84 % 1020,6 hPa 0,0 l/m 0 min 0 min 0,0 UV-I 0 W/m 0,0 km/h (0 Bft)
19.04.2013 06:34 7,2 C 5,7 C 84 % 1020,5 hPa 0,0 l/m 0 min 0 min 0,0 UV-I 0 W/m 7,7 km/h (2 Bft)
19.04.2013 06:36 7,2 C 5,7 C 84 % 1020,5 hPa 0,0 l/m 0 min 0 min 0,0 UV-I 0 W/m 2,6 km/h (1 Bft)
19.04.2013 06:38 7,2 C 5,7 C 84 % 1020,6 hPa 0,0 l/m 0 min 0 min 0,0 UV-I 0 W/m 5,1 km/h (1 Bft)
19.04.2013 06:40 7,1 C 5,7 C 84 % 1020,6 hPa 0,0 l/m 0 min 0 min 0,0 UV-I 0 W/m 10,3 km/h (2 Bft)
19.04.2013 06:42 7,1 C 5,7 C 84 % 1020,6 hPa 0,0 l/m 0 min 0 min 0,0 UV-I 5 W/m 0,0 km/h (0 Bft)
19.04.2013 06:44 7,1 C 5,7 C 84 % 1020,6 hPa 0,0 l/m 0 min 0 min 0,0 UV-I 5 W/m 5,1 km/h (1 Bft)
19.04.2013 06:46 7,1 C 5,7 C 84 % 1020,6 hPa 0,0 l/m 0 min 0 min 0,0 UV-I 5 W/m 7,7 km/h (2 Bft)
19.04.2013 06:48 7,1 C 5,7 C 84 % 1020,7 hPa 0,0 l/m 0 min 0 min 0,0 UV-I 5 W/m 0,0 km/h (0 Bft)
19.04.2013 06:50 7,1 C 5,7 C 84 % 1020,8 hPa 0,0 l/m 0 min 0 min 0,0 UV-I 7 W/m 2,6 km/h (1 Bft)
19.04.2013 06:52 7,0 C 5,7 C 85 % 1020,8 hPa 0,0 l/m 0 min 0 min 0,0 UV-I 7 W/m 0,0 km/h (0 Bft)
19.04.2013 06:54 7,0 C 5,7 C 85 % 1020,8 hPa 0,0 l/m 0 min 0 min 0,0 UV-I 7 W/m 2,6 km/h (1 Bft)
19.04.2013 06:56 6,9 C 5,7 C 85 % 1020,9 hPa 0,0 l/m 0 min 0 min 0,0 UV-I 7 W/m 2,6 km/h (1 Bft)
19.04.2013 06:58 6,9 C 5,7 C 85 % 1020,9 hPa 0,0 l/m 0 min 0 min 0,0 UV-I 9 W/m 10,3 km/h (2 Bft)
19.04.2013 07:00 6,9 C 5,7 C 85 % 1020,9 hPa 0,0 l/m 0 min 0 min 0,0 UV-I 9 W/m 0,0 km/h (0 Bft)
19.04.2013 07:02 6,9 C 5,7 C 85 % 1020,9 hPa 0,0 l/m 0 min 0 min 0,0 UV-I 11 W/m 5,1 km/h (1 Bft)
19.04.2013 07:04 6,9 C 5,7 C 85 % 1020,9 hPa 0,0 l/m 0 min 0 min 0,0 UV-I 11 W/m 0,0 km/h (0 Bft)
19.04.2013 07:06 6,9 C 5,7 C 85 % 1020,9 hPa 0,0 l/m 0 min 0 min 0,0 UV-I 11 W/m 5,1 km/h (1 Bft)
19.04.2013 07:08 6,8 C 5,7 C 85 % 1020,9 hPa 0,0 l/m 0 min 0 min 0,0 UV-I 11 W/m 0,0 km/h (0 Bft)
19.04.2013 07:10 6,8 C 5,7 C 85 % 1021,0 hPa 0,0 l/m 0 min 0 min 0,0 UV-I 11 W/m 2,6 km/h (1 Bft)
19.04.2013 07:12 6,8 C 5,7 C 85 % 1021,0 hPa 0,0 l/m 0 min 0 min 0,0 UV-I 12 W/m 0,0 km/h (0 Bft)
19.04.2013 07:14 6,8 C 5,7 C 85 % 1021,0 hPa 0,0 l/m 0 min 0 min 0,0 UV-I 12 W/m 5,1 km/h (1 Bft)
19.04.2013 07:16 6,8 C 5,7 C 86 % 1021,0 hPa 0,0 l/m 0 min 0 min 0,0 UV-I 12 W/m 5,1 km/h (1 Bft)
19.04.2013 07:18 6,8 C 5,7 C 86 % 1021,0 hPa 0,0 l/m 0 min 0 min 0,0 UV-I 14 W/m 5,1 km/h (1 Bft)
19.04.2013 07:20 6,8 C 5,7 C 86 % 1021,0 hPa 0,0 l/m 0 min 0 min 0,0 UV-I 16 W/m 0,0 km/h (0 Bft)
19.04.2013 07:22 6,8 C 5,7 C 86 % 1021,0 hPa 0,0 l/m 0 min 0 min 0,0 UV-I 18 W/m 0,0 km/h (0 Bft)
19.04.2013 07:24 6,8 C 5,7 C 86 % 1021,1 hPa 0,0 l/m 0 min 0 min 0,0 UV-I 21 W/m 0,0 km/h (0 Bft)
19.04.2013 07:26 6,7 C 5,7 C 86 % 1021,2 hPa 0,0 l/m 0 min 0 min 0,0 UV-I 23 W/m 7,7 km/h (2 Bft)
19.04.2013 07:28 6,7 C 5,7 C 86 % 1021,1 hPa 0,0 l/m 0 min 0 min 0,0 UV-I 25 W/m 0,0 km/h (0 Bft)
19.04.2013 07:30 6,7 C 5,7 C 86 % 1021,2 hPa 0,0 l/m 0 min 0 min 0,0 UV-I 25 W/m 0,0 km/h (0 Bft)
19.04.2013 07:32 6,8 C 5,7 C 86 % 1021,2 hPa 0,0 l/m 0 min 0 min 0,0 UV-I 26 W/m 2,6 km/h (1 Bft)
19.04.2013 07:34 6,8 C 5,7 C 86 % 1021,2 hPa 0,0 l/m 0 min 0 min 0,0 UV-I 26 W/m 0,0 km/h (0 Bft)
19.04.2013 07:36 6,8 C 5,7 C 86 % 1021,2 hPa 0,0 l/m 0 min 0 min 0,0 UV-I 26 W/m 0,0 km/h (0 Bft)
19.04.2013 07:38 6,8 C 5,7 C 86 % 1021,3 hPa 0,0 l/m 0 min 0 min 0,0 UV-I 28 W/m 2,6 km/h (1 Bft)
19.04.2013 07:40 6,8 C 5,7 C 86 % 1021,3 hPa 0,0 l/m 0 min 0 min 0,0 UV-I 28 W/m 2,6 km/h (1 Bft)
19.04.2013 07:42 6,8 C 5,7 C 86 % 1021,4 hPa 0,0 l/m 0 min 0 min 0,0 UV-I 28 W/m 5,1 km/h (1 Bft)
19.04.2013 07:44 6,8 C 5,7 C 86 % 1021,3 hPa 0,0 l/m 0 min 0 min 0,0 UV-I 30 W/m 5,1 km/h (1 Bft)
19.04.2013 07:46 6,8 C 6,2 C 86 % 1021,3 hPa 0,0 l/m 0 min 0 min 0,0 UV-I 30 W/m 2,6 km/h (1 Bft)
19.04.2013 07:48 6,8 C 6,2 C 87 % 1021,3 hPa 0,0 l/m 0 min 0 min 0,0 UV-I 30 W/m 2,6 km/h (1 Bft)
19.04.2013 07:50 6,9 C 6,2 C 86 % 1021,3 hPa 0,0 l/m 0 min 0 min 0,0 UV-I 32 W/m 7,7 km/h (2 Bft)
19.04.2013 07:52 6,9 C 6,2 C 87 % 1021,4 hPa 0,0 l/m 0 min 0 min 0,0 UV-I 32 W/m 12,9 km/h (3 Bft)
19.04.2013 07:54 6,9 C 6,2 C 87 % 1021,4 hPa 0,0 l/m 0 min 0 min 0,0 UV-I 32 W/m 5,1 km/h (1 Bft)
19.04.2013 07:56 7,0 C 6,2 C 87 % 1021,4 hPa 0,0 l/m 0 min 0 min 0,0 UV-I 33 W/m 10,3 km/h (2 Bft)
19.04.2013 07:58 7,0 C 6,2 C 86 % 1021,4 hPa 0,0 l/m 0 min 0 min 0,0 UV-I 33 W/m 7,7 km/h (2 Bft)
19.04.2013 08:00 7,1 C 6,2 C 86 % 1021,4 hPa 0,0 l/m 0 min 0 min 0,0 UV-I 33 W/m 7,7 km/h (2 Bft)
19.04.2013 08:02 7,1 C 6,2 C 86 % 1021,4 hPa 0,0 l/m 0 min 0 min 0,0 UV-I 33 W/m 12,9 km/h (3 Bft)
19.04.2013 08:04 7,2 C 6,2 C 86 % 1021,5 hPa 0,0 l/m 0 min 0 min 0,0 UV-I 35 W/m 10,3 km/h (2 Bft)
19.04.2013 08:06 7,2 C 6,2 C 86 % 1021,4 hPa 0,0 l/m 0 min 0 min 0,0 UV-I 35 W/m 7,7 km/h (2 Bft)
19.04.2013 08:08 7,2 C 6,8 C 86 % 1021,5 hPa 0,0 l/m 0 min 0 min 0,0 UV-I 35 W/m 10,3 km/h (2 Bft)
19.04.2013 08:10 7,3 C 6,8 C 85 % 1021,5 hPa 0,0 l/m 0 min 0 min 0,0 UV-I 37 W/m 18,0 km/h (3 Bft)
19.04.2013 08:12 7,3 C 6,8 C 85 % 1021,5 hPa 0,0 l/m 0 min 0 min 0,0 UV-I 37 W/m 10,3 km/h (2 Bft)
19.04.2013 08:14 7,4 C 6,8 C 85 % 1021,6 hPa 0,0 l/m 0 min 0 min 0,0 UV-I 37 W/m 15,4 km/h (3 Bft)
19.04.2013 08:16 7,4 C 6,8 C 85 % 1021,5 hPa 0,0 l/m 0 min 0 min 0,0 UV-I 39 W/m 10,3 km/h (2 Bft)
19.04.2013 08:18 7,5 C 6,8 C 85 % 1021,5 hPa 0,0 l/m 0 min 0 min 0,0 UV-I 39 W/m 15,4 km/h (3 Bft)
19.04.2013 08:20 7,6 C 6,8 C 84 % 1021,6 hPa 0,0 l/m 0 min 0 min 0,0 UV-I 40 W/m 15,4 km/h (3 Bft)
19.04.2013 08:22 7,6 C 6,8 C 84 % 1021,6 hPa 0,0 l/m 0 min 0 min 0,0 UV-I 40 W/m 10,3 km/h (2 Bft)
19.04.2013 08:24 7,6 C 6,8 C 84 % 1021,6 hPa 0,0 l/m 0 min 0 min 0,0 UV-I 40 W/m 12,9 km/h (3 Bft)
19.04.2013 08:26 7,7 C 6,8 C 84 % 1021,6 hPa 0,0 l/m 0 min 0 min 0,0 UV-I 42 W/m 12,9 km/h (3 Bft)
19.04.2013 08:28 7,7 C 6,8 C 84 % 1021,7 hPa 0,0 l/m 0 min 0 min 0,0 UV-I 42 W/m 15,4 km/h (3 Bft)
19.04.2013 08:30 7,7 C 6,8 C 84 % 1021,7 hPa 0,0 l/m 0 min 0 min 0,0 UV-I 42 W/m 10,3 km/h (2 Bft)
19.04.2013 08:32 7,8 C 6,8 C 84 % 1021,7 hPa 0,0 l/m 0 min 0 min 0,0 UV-I 44 W/m 12,9 km/h (3 Bft)
19.04.2013 08:34 7,8 C 7,3 C 83 % 1021,7 hPa 0,0 l/m 0 min 0 min 0,0 UV-I 44 W/m 15,4 km/h (3 Bft)
19.04.2013 08:36 7,8 C 7,3 C 83 % 1021,7 hPa 0,0 l/m 0 min 0 min 0,0 UV-I 46 W/m 10,3 km/h (2 Bft)
19.04.2013 08:38 7,9 C 7,3 C 83 % 1021,8 hPa 0,0 l/m 0 min 0 min 0,0 UV-I 46 W/m 10,3 km/h (2 Bft)
19.04.2013 08:40 7,9 C 7,3 C 83 % 1021,8 hPa 0,0 l/m 0 min 0 min 0,0 UV-I 47 W/m 15,4 km/h (3 Bft)
19.04.2013 08:42 8,0 C 7,3 C 82 % 1021,8 hPa 0,0 l/m 0 min 0 min 0,0 UV-I 49 W/m 10,3 km/h (2 Bft)
19.04.2013 08:44 8,0 C 7,3 C 82 % 1021,8 hPa 0,0 l/m 0 min 0 min 0,0 UV-I 51 W/m 10,3 km/h (2 Bft)
19.04.2013 08:46 8,1 C 7,3 C 82 % 1021,8 hPa 0,0 l/m 0 min 0 min 0,0 UV-I 51 W/m 18,0 km/h (3 Bft)
19.04.2013 08:48 8,1 C 7,3 C 82 % 1021,9 hPa 0,0 l/m 0 min 0 min 0,0 UV-I 53 W/m 10,3 km/h (2 Bft)
19.04.2013 08:50 8,2 C 7,3 C 82 % 1021,9 hPa 0,0 l/m 0 min 0 min 0,0 UV-I 53 W/m 10,3 km/h (2 Bft)
19.04.2013 08:52 8,2 C 7,3 C 82 % 1021,8 hPa 0,0 l/m 0 min 0 min 0,0 UV-I 60 W/m 10,3 km/h (2 Bft)
19.04.2013 08:54 8,3 C 7,3 C 82 % 1021,9 hPa 0,0 l/m 0 min 0 min 0,0 UV-I 56 W/m 10,3 km/h (2 Bft)
19.04.2013 08:56 8,3 C 7,3 C 82 % 1021,9 hPa 0,0 l/m 0 min 0 min 0,0 UV-I 58 W/m 12,9 km/h (3 Bft)
19.04.2013 08:58 8,4 C 7,3 C 82 % 1021,9 hPa 0,0 l/m 0 min 0 min 0,0 UV-I 60 W/m 10,3 km/h (2 Bft)
19.04.2013 09:00 8,4 C 7,9 C 81 % 1021,9 hPa 0,0 l/m 0 min 0 min 0,0 UV-I 60 W/m 12,9 km/h (3 Bft)
19.04.2013 09:02 8,5 C 7,9 C 81 % 1021,9 hPa 0,0 l/m 0 min 0 min 0,0 UV-I 65 W/m 20,6 km/h (4 Bft)
19.04.2013 09:04 8,6 C 7,3 C 80 % 1022,1 hPa 0,0 l/m 0 min 0 min 0,0 UV-I 56 W/m 18,0 km/h (3 Bft)
19.04.2013 09:06 8,6 C 7,9 C 80 % 1022,0 hPa 0,0 l/m 0 min 0 min 0,0 UV-I 77 W/m 10,3 km/h (2 Bft)
19.04.2013 09:08 8,7 C 7,9 C 80 % 1022,2 hPa 0,0 l/m 0 min 0 min 0,0 UV-I 88 W/m 10,3 km/h (2 Bft)
19.04.2013 09:10 8,7 C 7,9 C 80 % 1021,9 hPa 0,0 l/m 0 min 0 min 0,0 UV-I 102 W/m 15,4 km/h (3 Bft)
19.04.2013 09:12 8,8 C 7,9 C 80 % 1022,0 hPa 0,0 l/m 0 min 0 min 0,0 UV-I 93 W/m 23,2 km/h (4 Bft)
19.04.2013 09:14 8,8 C 7,9 C 80 % 1022,0 hPa 0,0 l/m 0 min 0 min 0,0 UV-I 162 W/m 10,3 km/h (2 Bft)
19.04.2013 09:16 8,9 C 8,4 C 80 % 1022,0 hPa 0,0 l/m 0 min 0 min 0,0 UV-I 179 W/m 7,7 km/h (2 Bft)
19.04.2013 09:18 9,0 C 8,4 C 80 % 1022,0 hPa 0,0 l/m 0 min 0 min 0,0 UV-I 211 W/m 15,4 km/h (3 Bft)
19.04.2013 09:20 9,1 C 8,4 C 79 % 1022,0 hPa 0,0 l/m 0 min 0 min 0,0 UV-I 234 W/m 20,6 km/h (4 Bft)
19.04.2013 09:22 9,1 C 8,4 C 78 % 1022,1 hPa 0,0 l/m 2 min 0 min 0,0 UV-I 265 W/m 15,4 km/h (3 Bft)
19.04.2013 09:24 9,1 C 8,4 C 78 % 1022,0 hPa 0,0 l/m 2 min 0 min 0,0 UV-I 320 W/m 20,6 km/h (4 Bft)
19.04.2013 09:26 9,2 C 8,4 C 78 % 1022,1 hPa 0,0 l/m 2 min 0 min 0,0 UV-I 345 W/m 15,4 km/h (3 Bft)
19.04.2013 09:28 9,2 C 8,4 C 78 % 1022,1 hPa 0,0 l/m 2 min 0 min 0,0 UV-I 348 W/m 12,9 km/h (3 Bft)
19.04.2013 09:30 9,3 C 9,0 C 78 % 1022,2 hPa 0,0 l/m 2 min 0 min 0,0 UV-I 374 W/m 18,0 km/h (3 Bft)
19.04.2013 09:32 9,4 C 9,6 C 78 % 1022,2 hPa 0,0 l/m 2 min 0 min 0,0 UV-I 403 W/m 15,4 km/h (3 Bft)
19.04.2013 09:34 9,4 C 10,7 C 77 % 1022,2 hPa 0,0 l/m 2 min 0 min 0,0 UV-I 345 W/m 25,7 km/h (4 Bft)
19.04.2013 09:36 9,5 C 11,8 C 77 % 1022,3 hPa 0,0 l/m 2 min 0 min 0,0 UV-I 413 W/m 18,0 km/h (3 Bft)
19.04.2013 09:38 9,6 C 11,8 C 77 % 1022,3 hPa 0,0 l/m 0 min 0 min 0,0 UV-I 120 W/m 18,0 km/h (3 Bft)
19.04.2013 09:40 9,6 C 11,8 C 77 % 1022,2 hPa 0,0 l/m 0 min 0 min 0,0 UV-I 107 W/m 12,9 km/h (3 Bft)
19.04.2013 09:42 9,7 C 11,8 C 76 % 1022,3 hPa 0,0 l/m 0 min 0 min 0,0 UV-I 225 W/m 12,9 km/h (3 Bft)
19.04.2013 09:44 9,7 C 11,8 C 76 % 1022,3 hPa 0,0 l/m 2 min 0 min 0,0 UV-I 311 W/m 12,9 km/h (3 Bft)
19.04.2013 09:46 9,7 C 11,8 C 76 % 1022,2 hPa 0,0 l/m 0 min 0 min 0,5 UV-I 139 W/m 10,3 km/h (2 Bft)
19.04.2013 09:48 9,8 C 12,9 C 76 % 1022,2 hPa 0,0 l/m 2 min 0 min 0,5 UV-I 466 W/m 12,9 km/h (3 Bft)
19.04.2013 09:50 9,8 C 13,4 C 77 % 1022,3 hPa 0,0 l/m 2 min 0 min 0,5 UV-I 466 W/m 10,3 km/h (2 Bft)
19.04.2013 09:52 9,9 C 13,4 C 76 % 1022,4 hPa 0,0 l/m 2 min 0 min 0,0 UV-I 439 W/m 18,0 km/h (3 Bft)
19.04.2013 09:54 10,0 C 12,3 C 75 % 1022,4 hPa 0,0 l/m 0 min 0 min 0,0 UV-I 130 W/m 10,3 km/h (2 Bft)
19.04.2013 09:56 10,0 C 11,8 C 75 % 1022,4 hPa 0,0 l/m 2 min 0 min 0,0 UV-I 304 W/m 10,3 km/h (2 Bft)
19.04.2013 09:58 10,0 C 10,7 C 74 % 1022,4 hPa 0,0 l/m 0 min 0 min 0,0 UV-I 128 W/m 7,7 km/h (2 Bft)
19.04.2013 10:00 10,0 C 10,7 C 74 % 1022,4 hPa 0,0 l/m 0 min 0 min 0,7 UV-I 118 W/m 15,4 km/h (3 Bft)
19.04.2013 10:02 10,0 C 13,4 C 75 % 1022,3 hPa 0,0 l/m 2 min 0 min 0,7 UV-I 513 W/m 10,3 km/h (2 Bft)
19.04.2013 10:04 10,1 C 14,6 C 75 % 1022,3 hPa 0,0 l/m 2 min 0 min 0,7 UV-I 501 W/m 18,0 km/h (3 Bft)
19.04.2013 10:06 10,2 C 15,1 C 75 % 1022,4 hPa 0,0 l/m 2 min 0 min 0,6 UV-I 501 W/m 15,4 km/h (3 Bft)
19.04.2013 10:08 10,3 C 14,6 C 75 % 1022,4 hPa 0,0 l/m 2 min 0 min 0,0 UV-I 527 W/m 7,7 km/h (2 Bft)
19.04.2013 10:10 10,4 C 12,9 C 74 % 1022,4 hPa 0,0 l/m 0 min 0 min 0,0 UV-I 149 W/m 15,4 km/h (3 Bft)
19.04.2013 10:12 10,4 C 11,8 C 73 % 1022,4 hPa 0,0 l/m 0 min 0 min 0,0 UV-I 141 W/m 2,6 km/h (1 Bft)
19.04.2013 10:14 10,4 C 11,2 C 73 % 1022,4 hPa 0,0 l/m 0 min 0 min 0,0 UV-I 134 W/m 20,6 km/h (4 Bft)
19.04.2013 10:16 10,4 C 10,7 C 72 % 1022,5 hPa 0,0 l/m 0 min 0 min 0,0 UV-I 88 W/m 20,6 km/h (4 Bft)
19.04.2013 10:18 10,3 C 10,1 C 72 % 1022,4 hPa 0,0 l/m 0 min 0 min 0,0 UV-I 97 W/m 12,9 km/h (3 Bft)
19.04.2013 10:20 10,2 C 10,1 C 73 % 1022,4 hPa 0,0 l/m 0 min 0 min 0,6 UV-I 104 W/m 7,7 km/h (2 Bft)
19.04.2013 10:22 10,2 C 10,1 C 73 % 1022,5 hPa 0,0 l/m 0 min 0 min 0,0 UV-I 134 W/m 5,1 km/h (1 Bft)
19.04.2013 10:24 10,1 C 9,6 C 73 % 1022,6 hPa 0,0 l/m 0 min 0 min 0,0 UV-I 146 W/m 7,7 km/h (2 Bft)
19.04.2013 10:26 10,1 C 10,7 C 74 % 1022,6 hPa 0,0 l/m 0 min 0 min 1,1 UV-I 171 W/m 15,4 km/h (3 Bft)
19.04.2013 10:28 10,1 C 11,2 C 73 % 1022,6 hPa 0,0 l/m 0 min 0 min 0,0 UV-I 155 W/m 12,9 km/h (3 Bft)
19.04.2013 10:30 10,1 C 11,2 C 74 % 1022,6 hPa 0,0 l/m 0 min 0 min 0,0 UV-I 248 W/m 7,7 km/h (2 Bft)
19.04.2013 10:32 10,1 C 10,7 C 73 % 1022,6 hPa 0,0 l/m 0 min 0 min 0,0 UV-I 120 W/m 12,9 km/h (3 Bft)
19.04.2013 10:34 10,1 C 10,1 C 73 % 1022,6 hPa 0,0 l/m 0 min 0 min 0,0 UV-I 165 W/m 12,9 km/h (3 Bft)
19.04.2013 10:36 10,0 C 10,7 C 73 % 1022,6 hPa 0,0 l/m 0 min 0 min 0,8 UV-I 274 W/m 25,7 km/h (4 Bft)
19.04.2013 10:38 10,1 C 11,8 C 73 % 1022,6 hPa 0,0 l/m 2 min 0 min 1,3 UV-I 615 W/m 18,0 km/h (3 Bft)
19.04.2013 10:40 10,2 C 11,8 C 73 % 1022,6 hPa 0,0 l/m 0 min 0 min 0,5 UV-I 257 W/m 18,0 km/h (3 Bft)
19.04.2013 10:42 10,2 C 11,8 C 73 % 1022,7 hPa 0,0 l/m 0 min 0 min 1,3 UV-I 186 W/m 20,6 km/h (4 Bft)
19.04.2013 10:44 10,3 C 12,3 C 72 % 1022,6 hPa 0,0 l/m 0 min 0 min 1,4 UV-I 186 W/m 12,9 km/h (3 Bft)
19.04.2013 10:46 10,5 C 13,4 C 73 % 1022,6 hPa 0,0 l/m 2 min 0 min 1,5 UV-I 686 W/m 30,9 km/h (5 Bft)
19.04.2013 10:48 10,6 C 14,0 C 72 % 1022,6 hPa 0,0 l/m 2 min 0 min 0,8 UV-I 680 W/m 15,4 km/h (3 Bft)
19.04.2013 10:50 10,8 C 14,6 C 72 % 1022,6 hPa 0,0 l/m 2 min 0 min 1,5 UV-I 649 W/m 15,4 km/h (3 Bft)
19.04.2013 10:52 10,9 C 14,6 C 72 % 1022,6 hPa 0,0 l/m 2 min 0 min 1,6 UV-I 649 W/m 12,9 km/h (3 Bft)
19.04.2013 10:54 11,1 C 14,6 C 71 % 1022,7 hPa 0,0 l/m 2 min 0 min 1,1 UV-I 649 W/m 15,4 km/h (3 Bft)
19.04.2013 10:56 11,2 C 15,7 C 71 % 1022,7 hPa 0,0 l/m 2 min 0 min 1,5 UV-I 613 W/m 12,9 km/h (3 Bft)
19.04.2013 10:58 11,3 C 14,6 C 71 % 1022,7 hPa 0,0 l/m 2 min 0 min 1,3 UV-I 613 W/m 12,9 km/h (3 Bft)
19.04.2013 11:00 11,4 C 14,0 C 71 % 1022,8 hPa 0,0 l/m 0 min 0 min 0,0 UV-I 188 W/m 10,3 km/h (2 Bft)
19.04.2013 11:02 11,5 C 12,9 C 69 % 1022,8 hPa 0,0 l/m 0 min 0 min 0,0 UV-I 213 W/m 20,6 km/h (4 Bft)
19.04.2013 11:04 11,5 C 11,8 C 69 % 1022,8 hPa 0,0 l/m 0 min 0 min 0,5 UV-I 243 W/m 15,4 km/h (3 Bft)
19.04.2013 11:06 11,4 C 11,8 C 69 % 1022,8 hPa 0,0 l/m 0 min 0 min 0,5 UV-I 250 W/m 12,9 km/h (3 Bft)
19.04.2013 11:10 11,4 C 11,2 C 69 % 1022,9 hPa 0,0 l/m 0 min 0 min 0,5 UV-I 250 W/m 12,9 km/h (3 Bft)
19.04.2013 11:15 11,3 C 11,8 C 69 % 1023,0 hPa 0,0 l/m 0 min 0 min 1,5 UV-I 278 W/m 15,4 km/h (3 Bft)
19.04.2013 11:18 11,2 C 11,2 C 68 % 1023,0 hPa 0,0 l/m 0 min 0 min 0,7 UV-I 258 W/m 7,7 km/h (2 Bft)
19.04.2013 11:20 11,1 C 11,8 C 70 % 1023,0 hPa 0,0 l/m 2 min 0 min 1,6 UV-I 366 W/m 12,9 km/h (3 Bft)
19.04.2013 11:22 11,2 C 12,3 C 70 % 1023,0 hPa 0,0 l/m 2 min 0 min 1,9 UV-I 366 W/m 12,9 km/h (3 Bft)
19.04.2013 11:24 11,3 C 12,3 C 70 % 1023,1 hPa 0,0 l/m 0 min 0 min 0,9 UV-I 366 W/m 10,3 km/h (2 Bft)
19.04.2013 11:26 11,3 C 12,3 C 69 % 1023,1 hPa 0,0 l/m 0 min 0 min 0,8 UV-I 274 W/m 12,9 km/h (3 Bft)
19.04.2013 11:28 11,3 C 12,3 C 68 % 1023,1 hPa 0,0 l/m 0 min 0 min 1,8 UV-I 357 W/m 12,9 km/h (3 Bft)
19.04.2013 11:30 11,3 C 12,3 C 69 % 1023,1 hPa 0,0 l/m 0 min 0 min 0,7 UV-I 281 W/m 12,9 km/h (3 Bft)
19.04.2013 11:32 11,3 C 11,8 C 68 % 1023,0 hPa 0,0 l/m 0 min 0 min 0,6 UV-I 243 W/m 20,6 km/h (4 Bft)
19.04.2013 11:34 11,3 C 11,8 C 68 % 1023,1 hPa 0,0 l/m 0 min 0 min 0,8 UV-I 265 W/m 18,0 km/h (3 Bft)
19.04.2013 11:36 11,3 C 12,3 C 69 % 1023,3 hPa 0,0 l/m 2 min 0 min 1,9 UV-I 547 W/m 20,6 km/h (4 Bft)
19.04.2013 11:38 11,3 C 12,3 C 69 % 1023,1 hPa 0,0 l/m 2 min 0 min 2,0 UV-I 547 W/m 15,4 km/h (3 Bft)
19.04.2013 11:40 11,4 C 12,3 C 68 % 1023,1 hPa 0,0 l/m 0 min 0 min 2,1 UV-I 265 W/m 12,9 km/h (3 Bft)
19.04.2013 11:42 11,4 C 12,9 C 68 % 1023,1 hPa 0,0 l/m 2 min 0 min 1,3 UV-I 487 W/m 18,0 km/h (3 Bft)
19.04.2013 11:44 11,5 C 12,9 C 68 % 1023,1 hPa 0,0 l/m 0 min 0 min 1,2 UV-I 355 W/m 18,0 km/h (3 Bft)
19.04.2013 11:46 11,6 C 12,9 C 68 % 1023,2 hPa 0,0 l/m 0 min 0 min 0,8 UV-I 285 W/m 10,3 km/h (2 Bft)
19.04.2013 11:48 11,6 C 12,9 C 69 % 1023,2 hPa 0,0 l/m 0 min 0 min 1,6 UV-I 267 W/m 10,3 km/h (2 Bft)
19.04.2013 11:50 11,6 C 12,9 C 68 % 1023,1 hPa 0,0 l/m 0 min 0 min 2,2 UV-I 304 W/m 18,0 km/h (3 Bft)
19.04.2013 11:52 11,7 C 12,9 C 68 % 1023,2 hPa 0,0 l/m 0 min 0 min 0,9 UV-I 304 W/m 7,7 km/h (2 Bft)
19.04.2013 11:54 11,7 C 12,9 C 69 % 1023,2 hPa 0,0 l/m 0 min 0 min 1,0 UV-I 318 W/m 7,7 km/h (2 Bft)
19.04.2013 11:56 11,8 C 13,4 C 68 % 1023,2 hPa 0,0 l/m 0 min 0 min 0,8 UV-I 292 W/m 7,7 km/h (2 Bft)
19.04.2013 11:58 11,8 C 13,4 C 67 % 1023,2 hPa 0,0 l/m 0 min 0 min 0,8 UV-I 262 W/m 12,9 km/h (3 Bft)
19.04.2013 12:00 11,8 C 12,9 C 66 % 1023,2 hPa 0,0 l/m 0 min 0 min 0,7 UV-I 267 W/m 20,6 km/h (4 Bft)
19.04.2013 12:02 11,8 C 12,9 C 67 % 1023,2 hPa 0,0 l/m 0 min 0 min 0,6 UV-I 248 W/m 12,9 km/h (3 Bft)
19.04.2013 12:04 11,8 C 12,3 C 67 % 1023,2 hPa 0,0 l/m 0 min 0 min 1,4 UV-I 283 W/m 12,9 km/h (3 Bft)
19.04.2013 12:06 11,7 C 12,3 C 65 % 1023,3 hPa 0,0 l/m 0 min 0 min 0,8 UV-I 283 W/m 15,4 km/h (3 Bft)
19.04.2013 12:08 11,6 C 11,8 C 65 % 1023,3 hPa 0,0 l/m 0 min 0 min 0,8 UV-I 269 W/m 23,2 km/h (4 Bft)
19.04.2013 12:10 11,6 C 11,8 C 66 % 1023,4 hPa 0,0 l/m 0 min 0 min 2,1 UV-I 311 W/m 12,9 km/h (3 Bft)
19.04.2013 12:12 11,5 C 12,3 C 67 % 1023,4 hPa 0,0 l/m 0 min 0 min 1,4 UV-I 276 W/m 18,0 km/h (3 Bft)
19.04.2013 12:14 11,6 C 12,3 C 68 % 1023,3 hPa 0,0 l/m 0 min 0 min 0,7 UV-I 250 W/m 12,9 km/h (3 Bft)
19.04.2013 12:16 11,6 C 12,3 C 67 % 1023,4 hPa 0,0 l/m 0 min 0 min 0,8 UV-I 285 W/m 15,4 km/h (3 Bft)
19.04.2013 12:18 11,6 C 13,4 C 68 % 1023,3 hPa 0,0 l/m 0 min 0 min 1,7 UV-I 285 W/m 10,3 km/h (2 Bft)
19.04.2013 12:20 11,6 C 12,9 C 68 % 1023,4 hPa 0,0 l/m 0 min 0 min 0,5 UV-I 281 W/m 10,3 km/h (2 Bft)
19.04.2013 12:22 11,7 C 13,4 C 68 % 1023,4 hPa 0,0 l/m 0 min 0 min 0,5 UV-I 218 W/m 12,9 km/h (3 Bft)
19.04.2013 12:24 11,7 C 12,9 C 66 % 1023,5 hPa 0,0 l/m 0 min 0 min 0,5 UV-I 221 W/m 10,3 km/h (2 Bft)
19.04.2013 12:26 11,7 C 12,3 C 67 % 1023,5 hPa 0,0 l/m 0 min 0 min 0,8 UV-I 244 W/m 10,3 km/h (2 Bft)
19.04.2013 12:28 11,7 C 12,3 C 67 % 1023,5 hPa 0,0 l/m 0 min 0 min 1,1 UV-I 272 W/m 7,7 km/h (2 Bft)
19.04.2013 12:30 11,7 C 12,3 C 67 % 1023,5 hPa 0,0 l/m 0 min 0 min 1,1 UV-I 325 W/m 18,0 km/h (3 Bft)
19.04.2013 12:32 11,7 C 12,9 C 67 % 1023,5 hPa 0,0 l/m 0 min 0 min 1,3 UV-I 357 W/m 12,9 km/h (3 Bft)
19.04.2013 12:34 11,7 C 12,9 C 67 % 1023,5 hPa 0,0 l/m 0 min 0 min 1,3 UV-I 327 W/m 15,4 km/h (3 Bft)
19.04.2013 12:36 11,8 C 14,6 C 66 % 1023,5 hPa 0,0 l/m 2 min 0 min 2,9 UV-I 951 W/m 10,3 km/h (2 Bft)
19.04.2013 12:38 11,8 C 15,1 C 67 % 1023,4 hPa 0,0 l/m 2 min 0 min 1,6 UV-I 951 W/m 15,4 km/h (3 Bft)
19.04.2013 12:40 11,9 C 14,6 C 67 % 1023,4 hPa 0,0 l/m 2 min 0 min 1,6 UV-I 951 W/m 10,3 km/h (2 Bft)
19.04.2013 12:42 12,1 C 14,6 C 66 % 1023,4 hPa 0,0 l/m 0 min 0 min 1,8 UV-I 383 W/m 12,9 km/h (3 Bft)
19.04.2013 12:44 12,2 C 14,6 C 67 % 1023,5 hPa 0,0 l/m 0 min 0 min 1,5 UV-I 410 W/m 10,3 km/h (2 Bft)
19.04.2013 12:46 12,3 C 14,6 C 66 % 1023,4 hPa 0,0 l/m 0 min 0 min 1,7 UV-I 348 W/m 12,9 km/h (3 Bft)
19.04.2013 12:48 12,4 C 15,7 C 66 % 1023,5 hPa 0,0 l/m 0 min 0 min 2,9 UV-I 355 W/m 12,9 km/h (3 Bft)
19.04.2013 12:50 12,6 C 16,2 C 66 % 1023,5 hPa 0,0 l/m 2 min 0 min 2,0 UV-I 462 W/m 10,3 km/h (2 Bft)
19.04.2013 12:52 12,7 C 16,2 C 65 % 1023,5 hPa 0,0 l/m 2 min 0 min 2,4 UV-I 499 W/m 12,9 km/h (3 Bft)
19.04.2013 12:54 12,8 C 15,1 C 65 % 1023,5 hPa 0,0 l/m 0 min 0 min 1,7 UV-I 397 W/m 12,9 km/h (3 Bft)
19.04.2013 12:56 12,8 C 14,6 C 63 % 1023,5 hPa 0,0 l/m 2 min 0 min 3,1 UV-I 503 W/m 18,0 km/h (3 Bft)
19.04.2013 12:58 12,8 C 15,1 C 63 % 1023,5 hPa 0,0 l/m 2 min 0 min 2,0 UV-I 468 W/m 12,9 km/h (3 Bft)
19.04.2013 13:00 12,9 C 15,1 C 64 % 1023,5 hPa 0,0 l/m 0 min 0 min 1,4 UV-I 338 W/m 15,4 km/h (3 Bft)
19.04.2013 13:02 13,0 C 14,6 C 64 % 1023,5 hPa 0,0 l/m 0 min 0 min 1,4 UV-I 392 W/m 12,9 km/h (3 Bft)
19.04.2013 13:04 13,1 C 14,0 C 63 % 1023,5 hPa 0,0 l/m 2 min 0 min 1,7 UV-I 466 W/m 25,7 km/h (4 Bft)
19.04.2013 13:06 13,1 C 14,6 C 64 % 1023,5 hPa 0,0 l/m 2 min 0 min 1,4 UV-I 438 W/m 18,0 km/h (3 Bft)
19.04.2013 13:08 13,1 C 14,6 C 64 % 1023,6 hPa 0,0 l/m 0 min 0 min 1,2 UV-I 366 W/m 18,0 km/h (3 Bft)
19.04.2013 13:10 13,1 C 14,0 C 63 % 1023,6 hPa 0,0 l/m 0 min 0 min 1,1 UV-I 322 W/m 12,9 km/h (3 Bft)
19.04.2013 13:12 13,1 C 14,6 C 64 % 1023,6 hPa 0,0 l/m 0 min 0 min 0,9 UV-I 294 W/m 12,9 km/h (3 Bft)
19.04.2013 13:14 13,1 C 14,0 C 64 % 1023,6 hPa 0,0 l/m 0 min 0 min 0,9 UV-I 281 W/m 12,9 km/h (3 Bft)
19.04.2013 13:16 13,0 C 13,4 C 63 % 1023,6 hPa 0,0 l/m 0 min 0 min 0,9 UV-I 290 W/m 7,7 km/h (2 Bft)
19.04.2013 13:18 12,9 C 13,4 C 63 % 1023,6 hPa 0,0 l/m 0 min 0 min 1,1 UV-I 316 W/m 10,3 km/h (2 Bft)
19.04.2013 13:20 12,9 C 13,4 C 63 % 1023,6 hPa 0,0 l/m 0 min 0 min 1,2 UV-I 334 W/m 10,3 km/h (2 Bft)
19.04.2013 13:22 12,9 C 13,4 C 63 % 1023,6 hPa 0,0 l/m 0 min 0 min 1,2 UV-I 339 W/m 15,4 km/h (3 Bft)
19.04.2013 13:24 12,8 C 13,4 C 63 % 1023,6 hPa 0,0 l/m 0 min 0 min 1,1 UV-I 330 W/m 15,4 km/h (3 Bft)
19.04.2013 13:26 12,8 C 13,4 C 63 % 1023,6 hPa 0,0 l/m 0 min 0 min 1,1 UV-I 329 W/m 12,9 km/h (3 Bft)
19.04.2013 13:28 12,8 C 13,4 C 64 % 1023,6 hPa 0,0 l/m 0 min 0 min 1,0 UV-I 308 W/m 5,1 km/h (1 Bft)
19.04.2013 13:30 12,8 C 13,4 C 63 % 1023,6 hPa 0,0 l/m 0 min 0 min 1,0 UV-I 325 W/m 18,0 km/h (3 Bft)
19.04.2013 13:32 12,8 C 13,4 C 62 % 1023,6 hPa 0,0 l/m 0 min 0 min 0,9 UV-I 283 W/m 12,9 km/h (3 Bft)
19.04.2013 13:34 12,8 C 13,4 C 63 % 1023,5 hPa 0,0 l/m 0 min 0 min 1,0 UV-I 301 W/m 10,3 km/h (2 Bft)
19.04.2013 13:36 12,7 C 13,4 C 62 % 1023,6 hPa 0,0 l/m 0 min 0 min 2,0 UV-I 339 W/m 12,9 km/h (3 Bft)
19.04.2013 13:38 12,7 C 13,4 C 62 % 1023,6 hPa 0,0 l/m 0 min 0 min 1,1 UV-I 297 W/m 10,3 km/h (2 Bft)
19.04.2013 13:40 12,7 C 13,4 C 64 % 1023,5 hPa 0,0 l/m 0 min 0 min 1,1 UV-I 288 W/m 5,1 km/h (1 Bft)
19.04.2013 13:42 12,8 C 13,4 C 63 % 1023,5 hPa 0,0 l/m 0 min 0 min 0,9 UV-I 302 W/m 12,9 km/h (3 Bft)
19.04.2013 13:44 12,8 C 13,4 C 63 % 1023,5 hPa 0,0 l/m 0 min 0 min 0,6 UV-I 227 W/m 10,3 km/h (2 Bft)
19.04.2013 13:46 12,8 C 12,9 C 62 % 1023,5 hPa 0,0 l/m 0 min 0 min 0,0 UV-I 197 W/m 10,3 km/h (2 Bft)
19.04.2013 13:48 12,8 C 12,9 C 61 % 1023,4 hPa 0,0 l/m 0 min 0 min 0,0 UV-I 176 W/m 7,7 km/h (2 Bft)
19.04.2013 13:50 12,8 C 12,9 C 61 % 1023,4 hPa 0,0 l/m 0 min 0 min 0,0 UV-I 169 W/m 10,3 km/h (2 Bft)
19.04.2013 13:52 12,8 C 12,3 C 61 % 1023,4 hPa 0,0 l/m 0 min 0 min 0,0 UV-I 151 W/m 20,6 km/h (4 Bft)
19.04.2013 13:54 12,8 C 12,3 C 61 % 1023,4 hPa 0,0 l/m 0 min 0 min 0,0 UV-I 142 W/m 5,1 km/h (1 Bft)
19.04.2013 13:56 12,8 C 12,3 C 62 % 1023,5 hPa 0,0 l/m 0 min 0 min 0,0 UV-I 149 W/m 2,6 km/h (1 Bft)
19.04.2013 13:58 12,7 C 12,3 C 61 % 1023,5 hPa 0,0 l/m 0 min 0 min 0,0 UV-I 165 W/m 7,7 km/h (2 Bft)
19.04.2013 14:00 12,7 C 12,9 C 62 % 1023,5 hPa 0,0 l/m 0 min 0 min 0,0 UV-I 179 W/m 7,7 km/h (2 Bft)
19.04.2013 14:02 12,7 C 12,9 C 62 % 1023,6 hPa 0,0 l/m 0 min 0 min 0,0 UV-I 193 W/m 12,9 km/h (3 Bft)
19.04.2013 14:04 12,7 C 12,9 C 62 % 1023,5 hPa 0,0 l/m 0 min 0 min 0,0 UV-I 181 W/m 10,3 km/h (2 Bft)
19.04.2013 14:06 12,7 C 12,9 C 63 % 1023,5 hPa 0,0 l/m 0 min 0 min 0,0 UV-I 172 W/m 7,7 km/h (2 Bft)
19.04.2013 14:08 12,7 C 12,9 C 62 % 1023,5 hPa 0,0 l/m 0 min 0 min 0,0 UV-I 160 W/m 10,3 km/h (2 Bft)
19.04.2013 14:10 12,7 C 12,3 C 61 % 1023,6 hPa 0,0 l/m 0 min 0 min 0,0 UV-I 149 W/m 12,9 km/h (3 Bft)
19.04.2013 14:12 12,6 C 12,3 C 61 % 1023,6 hPa 0,0 l/m 0 min 0 min 0,0 UV-I 128 W/m 10,3 km/h (2 Bft)
19.04.2013 14:14 12,6 C 11,8 C 62 % 1023,6 hPa 0,0 l/m 0 min 0 min 0,0 UV-I 100 W/m 10,3 km/h (2 Bft)
19.04.2013 14:16 12,5 C 11,8 C 61 % 1023,7 hPa 0,0 l/m 0 min 0 min 0,0 UV-I 81 W/m 12,9 km/h (3 Bft)
19.04.2013 14:18 12,4 C 11,8 C 62 % 1023,7 hPa 0,0 l/m 0 min 0 min 0,0 UV-I 77 W/m 15,4 km/h (3 Bft)
19.04.2013 14:20 12,3 C 11,2 C 62 % 1023,7 hPa 0,0 l/m 0 min 0 min 0,0 UV-I 77 W/m 12,9 km/h (3 Bft)
19.04.2013 14:22 12,3 C 11,2 C 63 % 1023,6 hPa 0,0 l/m 0 min 0 min 0,0 UV-I 86 W/m 10,3 km/h (2 Bft)
19.04.2013 14:24 12,2 C 11,2 C 63 % 1023,6 hPa 0,0 l/m 0 min 0 min 0,0 UV-I 97 W/m 18,0 km/h (3 Bft)
19.04.2013 14:26 12,1 C 11,2 C 64 % 1023,6 hPa 0,0 l/m 0 min 0 min 0,0 UV-I 105 W/m 12,9 km/h (3 Bft)
19.04.2013 14:28 12,1 C 11,2 C 64 % 1023,7 hPa 0,0 l/m 0 min 0 min 0,0 UV-I 105 W/m 20,6 km/h (4 Bft)
19.04.2013 14:30 12,0 C 11,2 C 64 % 1023,7 hPa 0,0 l/m 0 min 0 min 0,0 UV-I 105 W/m 12,9 km/h (3 Bft)
19.04.2013 14:32 11,9 C 11,2 C 64 % 1023,7 hPa 0,0 l/m 0 min 0 min 0,0 UV-I 105 W/m 7,7 km/h (2 Bft)
19.04.2013 14:34 11,9 C 11,2 C 65 % 1023,8 hPa 0,0 l/m 0 min 0 min 0,0 UV-I 104 W/m 5,1 km/h (1 Bft)
19.04.2013 14:36 11,9 C 11,2 C 66 % 1023,8 hPa 0,0 l/m 0 min 0 min 0,0 UV-I 104 W/m 10,3 km/h (2 Bft)
19.04.2013 14:38 11,8 C 11,2 C 66 % 1023,8 hPa 0,0 l/m 0 min 0 min 0,0 UV-I 102 W/m 15,4 km/h (3 Bft)
19.04.2013 14:40 11,8 C 11,2 C 65 % 1023,8 hPa 0,0 l/m 0 min 0 min 0,0 UV-I 100 W/m 10,3 km/h (2 Bft)
19.04.2013 14:42 11,7 C 11,2 C 65 % 1023,9 hPa 0,0 l/m 0 min 0 min 0,0 UV-I 100 W/m 18,0 km/h (3 Bft)
19.04.2013 14:44 11,7 C 11,2 C 66 % 1023,8 hPa 0,0 l/m 0 min 0 min 0,0 UV-I 100 W/m 7,7 km/h (2 Bft)
19.04.2013 14:46 11,7 C 11,2 C 66 % 1023,9 hPa 0,0 l/m 0 min 0 min 0,0 UV-I 98 W/m 7,7 km/h (2 Bft)
19.04.2013 14:48 11,6 C 11,2 C 66 % 1023,9 hPa 0,0 l/m 0 min 0 min 0,0 UV-I 98 W/m 18,0 km/h (3 Bft)
19.04.2013 14:50 11,6 C 11,2 C 66 % 1023,9 hPa 0,0 l/m 0 min 0 min 0,0 UV-I 100 W/m 2,6 km/h (1 Bft)
19.04.2013 14:52 11,6 C 10,7 C 66 % 1024,0 hPa 0,0 l/m 0 min 0 min 0,0 UV-I 111 W/m 15,4 km/h (3 Bft)
19.04.2013 14:54 11,6 C 10,7 C 66 % 1023,9 hPa 0,0 l/m 0 min 0 min 0,0 UV-I 116 W/m 10,3 km/h (2 Bft)
19.04.2013 14:56 11,6 C 11,2 C 67 % 1023,9 hPa 0,0 l/m 0 min 0 min 0,0 UV-I 118 W/m 0,0 km/h (0 Bft)
19.04.2013 14:58 11,6 C 11,2 C 67 % 1023,9 hPa 0,0 l/m 0 min 0 min 0,0 UV-I 118 W/m 10,3 km/h (2 Bft)
19.04.2013 15:00 11,5 C 11,2 C 66 % 1023,9 hPa 0,0 l/m 0 min 0 min 0,0 UV-I 120 W/m 20,6 km/h (4 Bft)
19.04.2013 15:02 11,5 C 11,2 C 66 % 1023,9 hPa 0,0 l/m 0 min 0 min 0,0 UV-I 139 W/m 5,1 km/h (1 Bft)
19.04.2013 15:04 11,5 C 11,2 C 67 % 1023,8 hPa 0,0 l/m 0 min 0 min 0,0 UV-I 158 W/m 2,6 km/h (1 Bft)
19.04.2013 15:06 11,6 C 11,8 C 67 % 1023,9 hPa 0,0 l/m 0 min 0 min 0,0 UV-I 179 W/m 10,3 km/h (2 Bft)
19.04.2013 15:08 11,6 C 11,8 C 67 % 1023,8 hPa 0,0 l/m 0 min 0 min 0,0 UV-I 209 W/m 10,3 km/h (2 Bft)
19.04.2013 15:10 11,6 C 11,8 C 67 % 1023,8 hPa 0,0 l/m 0 min 0 min 0,0 UV-I 230 W/m 7,7 km/h (2 Bft)
19.04.2013 15:12 11,7 C 12,3 C 67 % 1023,8 hPa 0,0 l/m 0 min 0 min 0,6 UV-I 265 W/m 2,6 km/h (1 Bft)
19.04.2013 15:14 11,7 C 12,3 C 66 % 1023,8 hPa 0,0 l/m 0 min 0 min 0,7 UV-I 301 W/m 10,3 km/h (2 Bft)
19.04.2013 15:16 11,8 C 12,9 C 66 % 1023,8 hPa 0,0 l/m 0 min 0 min 0,7 UV-I 276 W/m 7,7 km/h (2 Bft)
19.04.2013 15:18 11,8 C 12,9 C 64 % 1023,7 hPa 0,0 l/m 0 min 0 min 0,6 UV-I 248 W/m 10,3 km/h (2 Bft)
19.04.2013 15:20 11,9 C 12,9 C 65 % 1023,8 hPa 0,0 l/m 0 min 0 min 0,5 UV-I 211 W/m 2,6 km/h (1 Bft)
19.04.2013 15:22 12,0 C 12,9 C 65 % 1023,8 hPa 0,0 l/m 0 min 0 min 0,0 UV-I 192 W/m 7,7 km/h (2 Bft)
19.04.2013 15:24 12,1 C 12,9 C 65 % 1023,8 hPa 0,0 l/m 0 min 0 min 0,0 UV-I 178 W/m 7,7 km/h (2 Bft)
19.04.2013 15:26 12,1 C 12,3 C 64 % 1023,8 hPa 0,0 l/m 0 min 0 min 0,0 UV-I 169 W/m 10,3 km/h (2 Bft)
19.04.2013 15:28 12,1 C 12,3 C 64 % 1023,8 hPa 0,0 l/m 0 min 0 min 0,0 UV-I 174 W/m 7,7 km/h (2 Bft)
19.04.2013 15:30 12,1 C 12,3 C 64 % 1023,8 hPa 0,0 l/m 0 min 0 min 0,0 UV-I 183 W/m 5,1 km/h (1 Bft)
19.04.2013 15:32 12,2 C 12,3 C 65 % 1023,8 hPa 0,0 l/m 0 min 0 min 0,0 UV-I 200 W/m 0,0 km/h (0 Bft)
19.04.2013 15:34 12,2 C 12,9 C 65 % 1023,8 hPa 0,0 l/m 0 min 0 min 0,0 UV-I 216 W/m 7,7 km/h (2 Bft)
19.04.2013 15:36 12,2 C 12,3 C 63 % 1023,9 hPa 0,0 l/m 0 min 0 min 0,0 UV-I 234 W/m 7,7 km/h (2 Bft)
19.04.2013 15:38 12,2 C 12,9 C 64 % 1023,9 hPa 0,0 l/m 0 min 0 min 0,5 UV-I 253 W/m 12,9 km/h (3 Bft)
19.04.2013 15:40 12,3 C 12,9 C 64 % 1023,9 hPa 0,0 l/m 0 min 0 min 0,6 UV-I 264 W/m 12,9 km/h (3 Bft)
19.04.2013 15:42 12,3 C 12,9 C 64 % 1023,9 hPa 0,0 l/m 0 min 0 min 0,8 UV-I 278 W/m 0,0 km/h (0 Bft)
19.04.2013 15:44 12,4 C 13,4 C 63 % 1023,8 hPa 0,0 l/m 0 min 0 min 1,0 UV-I 345 W/m 0,0 km/h (0 Bft)
19.04.2013 15:46 12,5 C 13,4 C 63 % 1023,8 hPa 0,0 l/m 2 min 0 min 1,2 UV-I 512 W/m 12,9 km/h (3 Bft)
19.04.2013 15:48 12,6 C 14,0 C 63 % 1023,8 hPa 0,0 l/m 0 min 0 min 1,1 UV-I 346 W/m 2,6 km/h (1 Bft)
19.04.2013 15:50 12,7 C 14,0 C 63 % 1023,8 hPa 0,0 l/m 2 min 0 min 1,0 UV-I 450 W/m 5,1 km/h (1 Bft)
19.04.2013 15:52 12,9 C 14,0 C 62 % 1023,7 hPa 0,0 l/m 0 min 0 min 1,1 UV-I 352 W/m 10,3 km/h (2 Bft)
19.04.2013 15:54 13,1 C 14,0 C 61 % 1023,7 hPa 0,0 l/m 0 min 0 min 1,0 UV-I 332 W/m 7,7 km/h (2 Bft)
19.04.2013 15:56 13,2 C 14,0 C 61 % 1023,8 hPa 0,0 l/m 2 min 0 min 0,9 UV-I 378 W/m 15,4 km/h (3 Bft)
19.04.2013 15:58 13,3 C 14,0 C 60 % 1023,7 hPa 0,0 l/m 0 min 0 min 0,9 UV-I 346 W/m 10,3 km/h (2 Bft)
19.04.2013 16:00 13,4 C 14,0 C 60 % 1023,7 hPa 0,0 l/m 0 min 0 min 0,7 UV-I 290 W/m 10,3 km/h (2 Bft)
19.04.2013 16:02 13,4 C 14,0 C 60 % 1023,8 hPa 0,0 l/m 0 min 0 min 0,7 UV-I 290 W/m 5,1 km/h (1 Bft)
19.04.2013 16:04 13,5 C 14,0 C 60 % 1023,8 hPa 0,0 l/m 0 min 0 min 0,7 UV-I 309 W/m 5,1 km/h (1 Bft)
19.04.2013 16:06 13,5 C 14,0 C 60 % 1023,7 hPa 0,0 l/m 2 min 0 min 1,3 UV-I 364 W/m 23,2 km/h (4 Bft)
19.04.2013 16:08 13,6 C 14,0 C 60 % 1023,7 hPa 0,0 l/m 0 min 0 min 0,7 UV-I 311 W/m 12,9 km/h (3 Bft)
19.04.2013 16:10 13,6 C 14,0 C 60 % 1023,8 hPa 0,0 l/m 0 min 0 min 0,8 UV-I 343 W/m 12,9 km/h (3 Bft)
19.04.2013 16:12 13,7 C 14,0 C 60 % 1023,7 hPa 0,0 l/m 0 min 0 min 0,6 UV-I 258 W/m 15,4 km/h (3 Bft)
19.04.2013 16:14 13,7 C 14,0 C 60 % 1023,8 hPa 0,0 l/m 0 min 0 min 0,5 UV-I 246 W/m 15,4 km/h (3 Bft)
19.04.2013 16:16 13,6 C 13,4 C 60 % 1023,8 hPa 0,0 l/m 0 min 0 min 0,5 UV-I 244 W/m 10,3 km/h (2 Bft)
19.04.2013 16:18 13,6 C 13,4 C 60 % 1023,9 hPa 0,0 l/m 0 min 0 min 0,5 UV-I 250 W/m 12,9 km/h (3 Bft)
19.04.2013 16:20 13,5 C 13,4 C 60 % 1023,9 hPa 0,0 l/m 0 min 0 min 0,6 UV-I 279 W/m 12,9 km/h (3 Bft)
19.04.2013 16:22 13,5 C 13,4 C 61 % 1023,9 hPa 0,0 l/m 2 min 0 min 0,8 UV-I 399 W/m 12,9 km/h (3 Bft)
19.04.2013 16:24 13,5 C 13,4 C 62 % 1023,9 hPa 0,0 l/m 2 min 0 min 0,9 UV-I 348 W/m 10,3 km/h (2 Bft)
19.04.2013 16:26 13,4 C 13,4 C 60 % 1023,9 hPa 0,0 l/m 0 min 0 min 0,7 UV-I 311 W/m 15,4 km/h (3 Bft)
19.04.2013 16:28 13,4 C 13,4 C 60 % 1023,8 hPa 0,0 l/m 2 min 0 min 0,8 UV-I 359 W/m 10,3 km/h (2 Bft)
19.04.2013 16:30 13,4 C 13,4 C 61 % 1023,8 hPa 0,0 l/m 0 min 0 min 0,7 UV-I 297 W/m 7,7 km/h (2 Bft)
19.04.2013 16:32 13,5 C 13,4 C 62 % 1023,8 hPa 0,0 l/m 2 min 0 min 1,2 UV-I 631 W/m 2,6 km/h (1 Bft)
19.04.2013 16:34 13,6 C 13,4 C 61 % 1023,9 hPa 0,0 l/m 2 min 0 min 0,6 UV-I 364 W/m 23,2 km/h (4 Bft)
19.04.2013 16:36 13,6 C 14,0 C 61 % 1023,9 hPa 0,0 l/m 2 min 0 min 0,6 UV-I 343 W/m 12,9 km/h (3 Bft)
19.04.2013 16:38 13,6 C 13,4 C 60 % 1024,1 hPa 0,0 l/m 2 min 0 min 0,5 UV-I 341 W/m 10,3 km/h (2 Bft)
19.04.2013 16:40 13,6 C 13,4 C 60 % 1024,0 hPa 0,0 l/m 0 min 0 min 0,0 UV-I 250 W/m 5,1 km/h (1 Bft)
19.04.2013 16:42 13,7 C 13,4 C 60 % 1024,1 hPa 0,0 l/m 0 min 0 min 0,0 UV-I 227 W/m 15,4 km/h (3 Bft)
19.04.2013 16:44 13,7 C 13,4 C 61 % 1024,1 hPa 0,0 l/m 0 min 0 min 0,0 UV-I 220 W/m 12,9 km/h (3 Bft)
19.04.2013 16:46 13,7 C 13,4 C 61 % 1024,1 hPa 0,0 l/m 0 min 0 min 0,0 UV-I 211 W/m 5,1 km/h (1 Bft)
19.04.2013 16:48 13,6 C 13,4 C 60 % 1024,1 hPa 0,0 l/m 0 min 0 min 0,0 UV-I 200 W/m 10,3 km/h (2 Bft)
19.04.2013 16:50 13,6 C 13,4 C 60 % 1024,1 hPa 0,0 l/m 0 min 0 min 0,0 UV-I 195 W/m 12,9 km/h (3 Bft)
19.04.2013 16:52 13,6 C 12,9 C 60 % 1024,1 hPa 0,0 l/m 0 min 0 min 0,0 UV-I 193 W/m 10,3 km/h (2 Bft)
19.04.2013 16:54 13,5 C 13,4 C 61 % 1024,1 hPa 0,0 l/m 0 min 0 min 0,0 UV-I 190 W/m 2,6 km/h (1 Bft)
19.04.2013 16:56 13,4 C 12,9 C 61 % 1024,1 hPa 0,0 l/m 0 min 0 min 0,0 UV-I 188 W/m 10,3 km/h (2 Bft)
19.04.2013 16:58 13,4 C 12,9 C 60 % 1024,1 hPa 0,0 l/m 0 min 0 min 0,0 UV-I 186 W/m 15,4 km/h (3 Bft)
19.04.2013 17:00 13,3 C 12,9 C 62 % 1024,0 hPa 0,0 l/m 0 min 0 min 0,0 UV-I 185 W/m 15,4 km/h (3 Bft)
19.04.2013 17:02 13,3 C 12,9 C 62 % 1024,0 hPa 0,0 l/m 0 min 0 min 0,0 UV-I 181 W/m 10,3 km/h (2 Bft)
19.04.2013 17:04 13,2 C 12,9 C 62 % 1024,1 hPa 0,0 l/m 0 min 0 min 0,0 UV-I 176 W/m 10,3 km/h (2 Bft)
19.04.2013 17:06 13,2 C 12,9 C 62 % 1024,1 hPa 0,0 l/m 0 min 0 min 0,0 UV-I 158 W/m 10,3 km/h (2 Bft)
19.04.2013 17:08 13,1 C 12,9 C 63 % 1024,0 hPa 0,0 l/m 0 min 0 min 0,0 UV-I 139 W/m 10,3 km/h (2 Bft)
19.04.2013 17:10 13,1 C 12,3 C 63 % 1024,0 hPa 0,0 l/m 0 min 0 min 0,0 UV-I 125 W/m 12,9 km/h (3 Bft)
19.04.2013 17:12 13,1 C 12,3 C 63 % 1024,1 hPa 0,0 l/m 0 min 0 min 0,0 UV-I 128 W/m 15,4 km/h (3 Bft)
19.04.2013 17:14 13,0 C 12,3 C 64 % 1024,1 hPa 0,0 l/m 0 min 0 min 0,0 UV-I 146 W/m 7,7 km/h (2 Bft)
19.04.2013 17:16 12,9 C 12,3 C 64 % 1024,0 hPa 0,0 l/m 0 min 0 min 0,0 UV-I 169 W/m 20,6 km/h (4 Bft)
19.04.2013 17:18 12,9 C 12,3 C 64 % 1024,1 hPa 0,0 l/m 0 min 0 min 0,0 UV-I 221 W/m 12,9 km/h (3 Bft)
19.04.2013 17:20 12,9 C 12,3 C 64 % 1024,1 hPa 0,0 l/m 2 min 0 min 0,0 UV-I 301 W/m 20,6 km/h (4 Bft)
19.04.2013 17:22 12,8 C 12,9 C 64 % 1024,1 hPa 0,0 l/m 2 min 0 min 0,0 UV-I 555 W/m 20,6 km/h (4 Bft)
19.04.2013 17:24 12,9 C 13,4 C 65 % 1024,2 hPa 0,0 l/m 2 min 0 min 0,0 UV-I 552 W/m 10,3 km/h (2 Bft)
19.04.2013 17:26 13,1 C 13,4 C 65 % 1024,3 hPa 0,0 l/m 0 min 0 min 0,0 UV-I 193 W/m 18,0 km/h (3 Bft)
19.04.2013 17:28 13,1 C 12,9 C 66 % 1024,4 hPa 0,0 l/m 0 min 0 min 0,0 UV-I 192 W/m 18,0 km/h (3 Bft)
19.04.2013 17:30 13,0 C 12,3 C 66 % 1024,4 hPa 0,0 l/m 0 min 0 min 0,0 UV-I 223 W/m 18,0 km/h (3 Bft)
19.04.2013 17:32 12,9 C 11,8 C 66 % 1024,4 hPa 0,0 l/m 2 min 0 min 0,0 UV-I 297 W/m 20,6 km/h (4 Bft)
19.04.2013 17:34 12,8 C 11,8 C 66 % 1024,5 hPa 0,0 l/m 2 min 0 min 0,0 UV-I 359 W/m 20,6 km/h (4 Bft)
19.04.2013 17:36 12,7 C 11,8 C 68 % 1024,5 hPa 0,0 l/m 2 min 0 min 0,0 UV-I 262 W/m 12,9 km/h (3 Bft)
19.04.2013 17:38 12,7 C 11,8 C 68 % 1024,6 hPa 0,0 l/m 2 min 0 min 0,0 UV-I 264 W/m 20,6 km/h (4 Bft)
19.04.2013 17:40 12,6 C 11,8 C 68 % 1024,6 hPa 0,0 l/m 0 min 0 min 0,0 UV-I 199 W/m 20,6 km/h (4 Bft)
19.04.2013 17:42 12,4 C 11,2 C 68 % 1024,5 hPa 0,0 l/m 0 min 0 min 0,0 UV-I 185 W/m 15,4 km/h (3 Bft)
19.04.2013 17:44 12,4 C 11,2 C 69 % 1024,6 hPa 0,0 l/m 0 min 0 min 0,0 UV-I 193 W/m 12,9 km/h (3 Bft)
19.04.2013 17:46 12,3 C 11,2 C 69 % 1024,6 hPa 0,0 l/m 0 min 0 min 0,0 UV-I 213 W/m 18,0 km/h (3 Bft)
19.04.2013 17:48 12,1 C 11,2 C 70 % 1024,5 hPa 0,0 l/m 0 min 0 min 0,0 UV-I 202 W/m 23,2 km/h (4 Bft)
19.04.2013 17:50 12,0 C 11,2 C 70 % 1024,5 hPa 0,0 l/m 0 min 0 min 0,0 UV-I 195 W/m 15,4 km/h (3 Bft)
19.04.2013 17:52 11,9 C 11,2 C 71 % 1024,6 hPa 0,0 l/m 0 min 0 min 0,0 UV-I 207 W/m 12,9 km/h (3 Bft)
19.04.2013 17:54 11,8 C 11,2 C 72 % 1024,5 hPa 0,0 l/m 0 min 0 min 0,0 UV-I 214 W/m 10,3 km/h (2 Bft)
19.04.2013 17:56 11,8 C 11,8 C 72 % 1024,6 hPa 0,0 l/m 2 min 0 min 0,0 UV-I 432 W/m 18,0 km/h (3 Bft)
19.04.2013 17:58 11,8 C 11,8 C 72 % 1024,6 hPa 0,0 l/m 2 min 0 min 0,0 UV-I 246 W/m 20,6 km/h (4 Bft)
19.04.2013 18:00 11,8 C 11,8 C 72 % 1024,7 hPa 0,0 l/m 0 min 0 min 0,0 UV-I 199 W/m 10,3 km/h (2 Bft)
19.04.2013 18:02 11,8 C 11,2 C 71 % 1024,7 hPa 0,0 l/m 0 min 0 min 0,0 UV-I 207 W/m 12,9 km/h (3 Bft)
19.04.2013 18:04 11,8 C 11,8 C 72 % 1024,6 hPa 0,0 l/m 0 min 0 min 0,0 UV-I 190 W/m 15,4 km/h (3 Bft)
19.04.2013 18:06 11,8 C 11,8 C 71 % 1024,6 hPa 0,0 l/m 0 min 0 min 0,0 UV-I 165 W/m 20,6 km/h (4 Bft)
19.04.2013 18:08 11,8 C 11,8 C 71 % 1024,6 hPa 0,0 l/m 0 min 0 min 0,0 UV-I 141 W/m 10,3 km/h (2 Bft)
19.04.2013 18:10 11,8 C 11,8 C 69 % 1024,6 hPa 0,0 l/m 2 min 0 min 0,0 UV-I 220 W/m 10,3 km/h (2 Bft)
19.04.2013 18:12 11,8 C 11,2 C 69 % 1024,7 hPa 0,0 l/m 0 min 0 min 0,0 UV-I 127 W/m 15,4 km/h (3 Bft)
19.04.2013 18:14 11,8 C 11,2 C 68 % 1024,7 hPa 0,0 l/m 0 min 0 min 0,0 UV-I 172 W/m 7,7 km/h (2 Bft)
19.04.2013 18:16 11,7 C 11,2 C 68 % 1024,7 hPa 0,0 l/m 0 min 0 min 0,0 UV-I 135 W/m 20,6 km/h (4 Bft)
19.04.2013 18:18 11,7 C 11,2 C 67 % 1024,7 hPa 0,0 l/m 0 min 0 min 0,0 UV-I 135 W/m 7,7 km/h (2 Bft)
19.04.2013 18:20 11,7 C 11,2 C 67 % 1024,8 hPa 0,0 l/m 0 min 0 min 0,0 UV-I 141 W/m 18,0 km/h (3 Bft)
19.04.2013 18:22 11,7 C 11,2 C 67 % 1024,9 hPa 0,0 l/m 0 min 0 min 0,0 UV-I 155 W/m 15,4 km/h (3 Bft)
19.04.2013 18:24 11,7 C 11,2 C 67 % 1024,9 hPa 0,0 l/m 0 min 0 min 0,0 UV-I 160 W/m 12,9 km/h (3 Bft)
19.04.2013 18:26 11,6 C 11,2 C 68 % 1024,9 hPa 0,0 l/m 0 min 0 min 0,0 UV-I 156 W/m 0,0 km/h (0 Bft)
19.04.2013 18:28 11,6 C 11,2 C 68 % 1025,0 hPa 0,0 l/m 0 min 0 min 0,0 UV-I 146 W/m 10,3 km/h (2 Bft)
19.04.2013 18:30 11,6 C 11,2 C 68 % 1025,0 hPa 0,0 l/m 0 min 0 min 0,0 UV-I 135 W/m 7,7 km/h (2 Bft)
19.04.2013 18:32 11,6 C 11,2 C 68 % 1025,0 hPa 0,0 l/m 0 min 0 min 0,0 UV-I 130 W/m 12,9 km/h (3 Bft)
19.04.2013 18:34 11,6 C 11,2 C 68 % 1025,0 hPa 0,0 l/m 0 min 0 min 0,0 UV-I 125 W/m 15,4 km/h (3 Bft)
19.04.2013 18:36 11,6 C 10,7 C 67 % 1025,0 hPa 0,0 l/m 0 min 0 min 0,0 UV-I 118 W/m 23,2 km/h (4 Bft)
19.04.2013 18:38 11,5 C 10,7 C 68 % 1024,9 hPa 0,0 l/m 0 min 0 min 0,0 UV-I 113 W/m 15,4 km/h (3 Bft)
19.04.2013 18:40 11,5 C 10,7 C 68 % 1024,9 hPa 0,0 l/m 0 min 0 min 0,0 UV-I 104 W/m 12,9 km/h (3 Bft)
19.04.2013 18:42 11,5 C 10,7 C 68 % 1024,9 hPa 0,0 l/m 0 min 0 min 0,0 UV-I 156 W/m 10,3 km/h (2 Bft)
19.04.2013 18:44 11,4 C 10,7 C 68 % 1024,9 hPa 0,0 l/m 0 min 0 min 0,0 UV-I 91 W/m 23,2 km/h (4 Bft)
19.04.2013 18:46 11,4 C 10,7 C 68 % 1024,9 hPa 0,0 l/m 0 min 0 min 0,0 UV-I 76 W/m 18,0 km/h (3 Bft)
19.04.2013 18:48 11,3 C 10,7 C 68 % 1025,0 hPa 0,0 l/m 0 min 0 min 0,0 UV-I 84 W/m 15,4 km/h (3 Bft)
19.04.2013 18:50 11,3 C 10,1 C 69 % 1024,9 hPa 0,0 l/m 0 min 0 min 0,0 UV-I 65 W/m 18,0 km/h (3 Bft)
19.04.2013 18:52 11,2 C 10,1 C 69 % 1025,0 hPa 0,0 l/m 0 min 0 min 0,0 UV-I 60 W/m 23,2 km/h (4 Bft)
19.04.2013 18:54 11,2 C 10,1 C 69 % 1025,0 hPa 0,0 l/m 0 min 0 min 0,0 UV-I 62 W/m 18,0 km/h (3 Bft)
19.04.2013 18:56 11,1 C 10,1 C 70 % 1025,0 hPa 0,0 l/m 0 min 0 min 0,0 UV-I 65 W/m 15,4 km/h (3 Bft)
19.04.2013 18:58 11,1 C 10,1 C 70 % 1025,0 hPa 0,0 l/m 0 min 0 min 0,0 UV-I 72 W/m 7,7 km/h (2 Bft)
19.04.2013 19:00 11,1 C 10,1 C 71 % 1025,0 hPa 0,0 l/m 0 min 0 min 0,0 UV-I 127 W/m 10,3 km/h (2 Bft)
19.04.2013 19:02 11,0 C 10,1 C 71 % 1025,1 hPa 0,0 l/m 0 min 0 min 0,0 UV-I 70 W/m 15,4 km/h (3 Bft)
19.04.2013 19:04 11,0 C 10,1 C 71 % 1025,1 hPa 0,0 l/m 0 min 0 min 0,0 UV-I 70 W/m 15,4 km/h (3 Bft)
19.04.2013 19:06 10,9 C 10,1 C 71 % 1025,2 hPa 0,0 l/m 0 min 0 min 0,0 UV-I 76 W/m 5,1 km/h (1 Bft)
19.04.2013 19:08 10,9 C 10,1 C 72 % 1025,1 hPa 0,0 l/m 0 min 0 min 0,0 UV-I 72 W/m 15,4 km/h (3 Bft)
19.04.2013 19:10 10,9 C 10,1 C 72 % 1025,2 hPa 0,0 l/m 0 min 0 min 0,0 UV-I 70 W/m 7,7 km/h (2 Bft)
19.04.2013 19:12 10,9 C 9,6 C 72 % 1025,1 hPa 0,0 l/m 0 min 0 min 0,0 UV-I 63 W/m 12,9 km/h (3 Bft)
19.04.2013 19:14 10,8 C 9,6 C 72 % 1025,2 hPa 0,0 l/m 0 min 0 min 0,0 UV-I 60 W/m 7,7 km/h (2 Bft)
19.04.2013 19:16 10,8 C 9,6 C 73 % 1025,2 hPa 0,0 l/m 0 min 0 min 0,0 UV-I 54 W/m 5,1 km/h (1 Bft)
19.04.2013 19:18 10,8 C 9,6 C 74 % 1025,3 hPa 0,0 l/m 0 min 0 min 0,0 UV-I 49 W/m 10,3 km/h (2 Bft)
19.04.2013 19:20 10,8 C 9,6 C 74 % 1025,3 hPa 0,0 l/m 0 min 0 min 0,0 UV-I 44 W/m 5,1 km/h (1 Bft)
19.04.2013 19:22 10,8 C 9,6 C 74 % 1025,3 hPa 0,0 l/m 0 min 0 min 0,0 UV-I 42 W/m 7,7 km/h (2 Bft)
19.04.2013 19:24 10,7 C 9,6 C 74 % 1025,3 hPa 0,0 l/m 0 min 0 min 0,0 UV-I 42 W/m 0,0 km/h (0 Bft)
19.04.2013 19:26 10,7 C 9,6 C 75 % 1025,3 hPa 0,0 l/m 0 min 0 min 0,0 UV-I 44 W/m 10,3 km/h (2 Bft)
19.04.2013 19:28 10,7 C 9,6 C 75 % 1025,3 hPa 0,0 l/m 0 min 0 min 0,0 UV-I 46 W/m 2,6 km/h (1 Bft)
19.04.2013 19:30 10,7 C 9,6 C 75 % 1025,3 hPa 0,0 l/m 0 min 0 min 0,0 UV-I 49 W/m 0,0 km/h (0 Bft)
19.04.2013 19:32 10,7 C 9,6 C 76 % 1025,3 hPa 0,0 l/m 0 min 0 min 0,0 UV-I 54 W/m 2,6 km/h (1 Bft)
19.04.2013 19:34 10,6 C 9,6 C 76 % 1025,3 hPa 0,0 l/m 0 min 0 min 0,0 UV-I 56 W/m 2,6 km/h (1 Bft)
19.04.2013 19:36 10,6 C 9,6 C 76 % 1025,3 hPa 0,0 l/m 0 min 0 min 0,0 UV-I 56 W/m 0,0 km/h (0 Bft)
19.04.2013 19:38 10,6 C 9,6 C 76 % 1025,4 hPa 0,0 l/m 0 min 0 min 0,0 UV-I 54 W/m 10,3 km/h (2 Bft)
19.04.2013 19:40 10,6 C 9,6 C 76 % 1025,4 hPa 0,0 l/m 0 min 0 min 0,0 UV-I 53 W/m 12,9 km/h (3 Bft)
19.04.2013 19:42 10,6 C 9,6 C 76 % 1025,4 hPa 0,0 l/m 0 min 0 min 0,0 UV-I 47 W/m 10,3 km/h (2 Bft)
19.04.2013 19:44 10,5 C 9,6 C 76 % 1025,4 hPa 0,0 l/m 0 min 0 min 0,0 UV-I 40 W/m 5,1 km/h (1 Bft)
19.04.2013 19:46 10,5 C 9,6 C 76 % 1025,4 hPa 0,0 l/m 0 min 0 min 0,0 UV-I 37 W/m 7,7 km/h (2 Bft)
19.04.2013 19:48 10,4 C 9,6 C 76 % 1025,4 hPa 0,0 l/m 0 min 0 min 0,0 UV-I 35 W/m 5,1 km/h (1 Bft)
19.04.2013 19:50 10,4 C 9,0 C 76 % 1025,4 hPa 0,0 l/m 0 min 0 min 0,0 UV-I 33 W/m 0,0 km/h (0 Bft)
19.04.2013 19:52 10,4 C 9,0 C 75 % 1025,5 hPa 0,0 l/m 0 min 0 min 0,0 UV-I 33 W/m 12,9 km/h (3 Bft)
19.04.2013 19:54 10,4 C 9,0 C 75 % 1025,5 hPa 0,0 l/m 0 min 0 min 0,0 UV-I 33 W/m 5,1 km/h (1 Bft)
19.04.2013 19:56 10,3 C 9,0 C 75 % 1025,6 hPa 0,0 l/m 0 min 0 min 0,0 UV-I 33 W/m 10,3 km/h (2 Bft)
19.04.2013 19:58 10,3 C 9,0 C 75 % 1025,7 hPa 0,0 l/m 0 min 0 min 0,0 UV-I 33 W/m 0,0 km/h (0 Bft)
19.04.2013 20:00 10,3 C 9,0 C 75 % 1025,8 hPa 0,0 l/m 0 min 0 min 0,0 UV-I 32 W/m 5,1 km/h (1 Bft)
19.04.2013 20:02 10,2 C 9,0 C 75 % 1025,8 hPa 0,0 l/m 0 min 0 min 0,0 UV-I 28 W/m 12,9 km/h (3 Bft)
19.04.2013 20:04 10,2 C 9,0 C 75 % 1025,8 hPa 0,0 l/m 0 min 0 min 0,0 UV-I 25 W/m 10,3 km/h (2 Bft)
19.04.2013 20:06 10,1 C 8,4 C 75 % 1025,8 hPa 0,0 l/m 0 min 0 min 0,0 UV-I 23 W/m 10,3 km/h (2 Bft)
19.04.2013 20:08 10,1 C 8,4 C 76 % 1025,8 hPa 0,0 l/m 0 min 0 min 0,0 UV-I 21 W/m 20,6 km/h (4 Bft)
19.04.2013 20:10 10,0 C 8,4 C 76 % 1025,8 hPa 0,0 l/m 0 min 0 min 0,0 UV-I 19 W/m 10,3 km/h (2 Bft)
19.04.2013 20:12 9,9 C 8,4 C 77 % 1025,8 hPa 0,0 l/m 0 min 0 min 0,0 UV-I 18 W/m 15,4 km/h (3 Bft)
19.04.2013 20:14 9,8 C 8,4 C 77 % 1025,9 hPa 0,0 l/m 0 min 0 min 0,0 UV-I 18 W/m 18,0 km/h (3 Bft)
19.04.2013 20:16 9,8 C 8,4 C 78 % 1026,0 hPa 0,0 l/m 0 min 0 min 0,0 UV-I 16 W/m 18,0 km/h (3 Bft)
19.04.2013 20:18 9,7 C 8,4 C 78 % 1026,0 hPa 0,0 l/m 0 min 0 min 0,0 UV-I 14 W/m 12,9 km/h (3 Bft)
19.04.2013 20:20 9,7 C 7,9 C 78 % 1026,0 hPa 0,0 l/m 0 min 0 min 0,0 UV-I 11 W/m 15,4 km/h (3 Bft)
19.04.2013 20:22 9,6 C 7,9 C 78 % 1026,1 hPa 0,0 l/m 0 min 0 min 0,0 UV-I 9 W/m 5,1 km/h (1 Bft)
19.04.2013 20:24 9,6 C 7,9 C 79 % 1026,1 hPa 0,0 l/m 0 min 0 min 0,0 UV-I 9 W/m 10,3 km/h (2 Bft)
19.04.2013 20:26 9,5 C 7,9 C 79 % 1026,1 hPa 0,0 l/m 0 min 0 min 0,0 UV-I 7 W/m 10,3 km/h (2 Bft)
19.04.2013 20:28 9,4 C 7,9 C 79 % 1026,2 hPa 0,0 l/m 0 min 0 min 0,0 UV-I 7 W/m 0,0 km/h (0 Bft)
19.04.2013 20:30 9,4 C 7,9 C 79 % 1026,3 hPa 0,0 l/m 0 min 0 min 0,0 UV-I 7 W/m 2,6 km/h (1 Bft)
19.04.2013 20:32 9,3 C 7,9 C 80 % 1026,3 hPa 0,0 l/m 0 min 0 min 0,0 UV-I 5 W/m 5,1 km/h (1 Bft)
19.04.2013 20:34 9,3 C 7,9 C 80 % 1026,3 hPa 0,0 l/m 0 min 0 min 0,0 UV-I 5 W/m 7,7 km/h (2 Bft)
19.04.2013 20:36 9,3 C 7,9 C 80 % 1026,4 hPa 0,0 l/m 0 min 0 min 0,0 UV-I 0 W/m 2,6 km/h (1 Bft)
19.04.2013 20:38 9,2 C 7,9 C 80 % 1026,4 hPa 0,0 l/m 0 min 0 min 0,0 UV-I 0 W/m 5,1 km/h (1 Bft)
19.04.2013 20:40 9,2 C 7,9 C 80 % 1026,4 hPa 0,0 l/m 0 min 0 min 0,0 UV-I 0 W/m 7,7 km/h (2 Bft)
19.04.2013 20:42 9,2 C 7,9 C 81 % 1026,4 hPa 0,0 l/m 0 min 0 min 0,0 UV-I 0 W/m 7,7 km/h (2 Bft)
19.04.2013 20:44 9,1 C 7,9 C 81 % 1026,4 hPa 0,0 l/m 0 min 0 min 0,0 UV-I 0 W/m 5,1 km/h (1 Bft)
19.04.2013 20:46 9,1 C 7,9 C 81 % 1026,4 hPa 0,0 l/m 0 min 0 min 0,0 UV-I 0 W/m 10,3 km/h (2 Bft)
19.04.2013 20:48 9,0 C 7,9 C 81 % 1026,5 hPa 0,0 l/m 0 min 0 min 0,0 UV-I 0 W/m 7,7 km/h (2 Bft)
19.04.2013 20:50 9,0 C 7,9 C 81 % 1026,5 hPa 0,0 l/m 0 min 0 min 0,0 UV-I 0 W/m 7,7 km/h (2 Bft)
19.04.2013 20:52 8,9 C 7,9 C 81 % 1026,5 hPa 0,0 l/m 0 min 0 min 0,0 UV-I 0 W/m 7,7 km/h (2 Bft)
19.04.2013 20:54 8,9 C 7,9 C 82 % 1026,6 hPa 0,0 l/m 0 min 0 min 0,0 UV-I 0 W/m 12,9 km/h (3 Bft)
19.04.2013 20:56 8,9 C 7,9 C 82 % 1026,6 hPa 0,0 l/m 0 min 0 min 0,0 UV-I 0 W/m 7,7 km/h (2 Bft)
19.04.2013 20:58 8,9 C 7,3 C 82 % 1026,6 hPa 0,0 l/m 0 min 0 min 0,0 UV-I 0 W/m 2,6 km/h (1 Bft)
19.04.2013 21:00 8,8 C 7,3 C 82 % 1026,6 hPa 0,0 l/m 0 min 0 min 0,0 UV-I 0 W/m 7,7 km/h (2 Bft)
19.04.2013 21:02 8,8 C 7,3 C 82 % 1026,7 hPa 0,0 l/m 0 min 0 min 0,0 UV-I 0 W/m 7,7 km/h (2 Bft)
19.04.2013 21:04 8,8 C 7,3 C 82 % 1026,7 hPa 0,0 l/m 0 min 0 min 0,0 UV-I 0 W/m 2,6 km/h (1 Bft)
19.04.2013 21:06 8,8 C 7,3 C 83 % 1026,7 hPa 0,0 l/m 0 min 0 min 0,0 UV-I 0 W/m 7,7 km/h (2 Bft)
19.04.2013 21:08 8,8 C 7,3 C 83 % 1026,8 hPa 0,0 l/m 0 min 0 min 0,0 UV-I 0 W/m 7,7 km/h (2 Bft)
19.04.2013 21:10 8,7 C 7,3 C 83 % 1026,8 hPa 0,0 l/m 0 min 0 min 0,0 UV-I 0 W/m 2,6 km/h (1 Bft)
19.04.2013 21:12 8,7 C 7,3 C 83 % 1026,8 hPa 0,0 l/m 0 min 0 min 0,0 UV-I 0 W/m 7,7 km/h (2 Bft)
19.04.2013 21:14 8,7 C 7,3 C 83 % 1026,8 hPa 0,0 l/m 0 min 0 min 0,0 UV-I 0 W/m 7,7 km/h (2 Bft)
19.04.2013 21:16 8,7 C 7,3 C 84 % 1026,8 hPa 0,0 l/m 0 min 0 min 0,0 UV-I 0 W/m 7,7 km/h (2 Bft)
19.04.2013 21:18 8,7 C 7,3 C 84 % 1026,9 hPa 0,0 l/m 0 min 0 min 0,0 UV-I 0 W/m 10,3 km/h (2 Bft)
19.04.2013 21:20 8,7 C 7,3 C 84 % 1026,9 hPa 0,0 l/m 0 min 2 min 0,0 UV-I 0 W/m 12,9 km/h (3 Bft)
19.04.2013 21:22 8,7 C 7,3 C 84 % 1027,0 hPa 0,0 l/m 0 min 2 min 0,0 UV-I 0 W/m 5,1 km/h (1 Bft)
19.04.2013 21:24 8,6 C 7,3 C 85 % 1027,0 hPa 0,0 l/m 0 min 2 min 0,0 UV-I 0 W/m 10,3 km/h (2 Bft)
19.04.2013 21:26 8,6 C 6,8 C 85 % 1027,0 hPa 0,0 l/m 0 min 0 min 0,0 UV-I 0 W/m 5,1 km/h (1 Bft)
19.04.2013 21:28 8,6 C 6,8 C 85 % 1027,0 hPa 0,0 l/m 0 min 0 min 0,0 UV-I 0 W/m 2,6 km/h (1 Bft)
19.04.2013 21:30 8,6 C 7,3 C 85 % 1027,0 hPa 0,0 l/m 0 min 0 min 0,0 UV-I 0 W/m 2,6 km/h (1 Bft)
19.04.2013 21:32 8,6 C 7,3 C 85 % 1027,0 hPa 0,0 l/m 0 min 0 min 0,0 UV-I 0 W/m 5,1 km/h (1 Bft)
19.04.2013 21:34 8,6 C 7,3 C 86 % 1027,1 hPa 0,0 l/m 0 min 0 min 0,0 UV-I 0 W/m 10,3 km/h (2 Bft)
19.04.2013 21:36 8,6 C 7,3 C 86 % 1027,1 hPa 0,0 l/m 0 min 0 min 0,0 UV-I 0 W/m 5,1 km/h (1 Bft)
19.04.2013 21:38 8,6 C 7,3 C 86 % 1027,1 hPa 0,0 l/m 0 min 0 min 0,0 UV-I 0 W/m 0,0 km/h (0 Bft)
19.04.2013 21:40 8,6 C 7,3 C 86 % 1027,1 hPa 0,0 l/m 0 min 0 min 0,0 UV-I 0 W/m 2,6 km/h (1 Bft)
19.04.2013 21:42 8,6 C 7,3 C 86 % 1027,1 hPa 0,0 l/m 0 min 0 min 0,0 UV-I 0 W/m 10,3 km/h (2 Bft)
19.04.2013 21:44 8,6 C 7,3 C 86 % 1027,1 hPa 0,0 l/m 0 min 0 min 0,0 UV-I 0 W/m 7,7 km/h (2 Bft)
19.04.2013 21:46 8,6 C 7,3 C 86 % 1027,2 hPa 0,0 l/m 0 min 0 min 0,0 UV-I 0 W/m 7,7 km/h (2 Bft)
19.04.2013 21:48 8,6 C 7,9 C 86 % 1027,2 hPa 0,0 l/m 0 min 0 min 0,0 UV-I 0 W/m 10,3 km/h (2 Bft)
19.04.2013 21:50 8,6 C 7,9 C 87 % 1027,2 hPa 0,0 l/m 0 min 0 min 0,0 UV-I 0 W/m 15,4 km/h (3 Bft)
19.04.2013 21:52 8,6 C 7,9 C 87 % 1027,2 hPa 0,0 l/m 0 min 0 min 0,0 UV-I 0 W/m 18,0 km/h (3 Bft)
19.04.2013 21:54 8,6 C 7,9 C 87 % 1027,2 hPa 0,0 l/m 0 min 0 min 0,0 UV-I 0 W/m 18,0 km/h (3 Bft)
19.04.2013 21:56 8,6 C 7,9 C 87 % 1027,2 hPa 0,0 l/m 0 min 0 min 0,0 UV-I 0 W/m 10,3 km/h (2 Bft)
19.04.2013 21:58 8,6 C 7,9 C 87 % 1027,3 hPa 0,0 l/m 0 min 0 min 0,0 UV-I 0 W/m 12,9 km/h (3 Bft)
19.04.2013 22:00 8,6 C 7,9 C 87 % 1027,3 hPa 0,0 l/m 0 min 0 min 0,0 UV-I 0 W/m 15,4 km/h (3 Bft)
19.04.2013 22:02 8,6 C 7,9 C 87 % 1027,3 hPa 0,0 l/m 0 min 0 min 0,0 UV-I 0 W/m 15,4 km/h (3 Bft)
19.04.2013 22:04 8,6 C 7,9 C 87 % 1027,4 hPa 0,0 l/m 0 min 0 min 0,0 UV-I 0 W/m 18,0 km/h (3 Bft)
19.04.2013 22:06 8,6 C 7,9 C 87 % 1027,4 hPa 0,0 l/m 0 min 0 min 0,0 UV-I 0 W/m 15,4 km/h (3 Bft)
19.04.2013 22:08 8,6 C 7,9 C 87 % 1027,5 hPa 0,0 l/m 0 min 0 min 0,0 UV-I 0 W/m 18,0 km/h (3 Bft)
19.04.2013 22:10 8,6 C 7,9 C 87 % 1027,5 hPa 0,0 l/m 0 min 0 min 0,0 UV-I 0 W/m 12,9 km/h (3 Bft)
19.04.2013 22:12 8,6 C 7,9 C 87 % 1027,5 hPa 0,0 l/m 0 min 0 min 0,0 UV-I 0 W/m 18,0 km/h (3 Bft)
19.04.2013 22:14 8,6 C 7,3 C 87 % 1027,5 hPa 0,0 l/m 0 min 0 min 0,0 UV-I 0 W/m 12,9 km/h (3 Bft)
19.04.2013 22:16 8,6 C 7,3 C 87 % 1027,5 hPa 0,0 l/m 0 min 0 min 0,0 UV-I 0 W/m 18,0 km/h (3 Bft)
19.04.2013 22:18 8,6 C 7,3 C 88 % 1027,6 hPa 0,0 l/m 0 min 0 min 0,0 UV-I 0 W/m 12,9 km/h (3 Bft)
19.04.2013 22:20 8,6 C 7,3 C 88 % 1027,6 hPa 0,0 l/m 0 min 0 min 0,0 UV-I 0 W/m 15,4 km/h (3 Bft)
19.04.2013 22:22 8,6 C 7,3 C 88 % 1027,6 hPa 0,0 l/m 0 min 0 min 0,0 UV-I 0 W/m 12,9 km/h (3 Bft)
19.04.2013 22:24 8,5 C 7,3 C 88 % 1027,5 hPa 0,0 l/m 0 min 0 min 0,0 UV-I 0 W/m 12,9 km/h (3 Bft)
19.04.2013 22:26 8,5 C 7,3 C 88 % 1027,6 hPa 0,0 l/m 0 min 0 min 0,0 UV-I 0 W/m 15,4 km/h (3 Bft)
19.04.2013 22:28 8,5 C 7,3 C 88 % 1027,6 hPa 0,0 l/m 0 min 0 min 0,0 UV-I 0 W/m 12,9 km/h (3 Bft)
19.04.2013 22:30 8,4 C 7,3 C 88 % 1027,6 hPa 0,0 l/m 0 min 0 min 0,0 UV-I 0 W/m 12,9 km/h (3 Bft)
19.04.2013 22:32 8,4 C 7,3 C 88 % 1027,6 hPa 0,0 l/m 0 min 0 min 0,0 UV-I 0 W/m 7,7 km/h (2 Bft)
19.04.2013 22:34 8,4 C 7,3 C 88 % 1027,6 hPa 0,0 l/m 0 min 0 min 0,0 UV-I 0 W/m 2,6 km/h (1 Bft)
19.04.2013 22:36 8,4 C 7,3 C 89 % 1027,6 hPa 0,0 l/m 0 min 0 min 0,0 UV-I 0 W/m 10,3 km/h (2 Bft)
19.04.2013 22:38 8,4 C 7,3 C 89 % 1027,6 hPa 0,0 l/m 0 min 0 min 0,0 UV-I 0 W/m 0,0 km/h (0 Bft)
19.04.2013 22:40 8,4 C 7,3 C 89 % 1027,7 hPa 0,0 l/m 0 min 0 min 0,0 UV-I 0 W/m 0,0 km/h (0 Bft)
19.04.2013 22:42 8,3 C 7,3 C 89 % 1027,6 hPa 0,0 l/m 0 min 0 min 0,0 UV-I 0 W/m 10,3 km/h (2 Bft)
19.04.2013 22:44 8,3 C 7,3 C 88 % 1027,7 hPa 0,0 l/m 0 min 0 min 0,0 UV-I 0 W/m 20,6 km/h (4 Bft)
19.04.2013 22:46 8,3 C 7,3 C 88 % 1027,6 hPa 0,0 l/m 0 min 0 min 0,0 UV-I 0 W/m 12,9 km/h (3 Bft)
19.04.2013 22:48 8,3 C 7,3 C 88 % 1027,7 hPa 0,0 l/m 0 min 0 min 0,0 UV-I 0 W/m 7,7 km/h (2 Bft)
19.04.2013 22:50 8,3 C 7,3 C 88 % 1027,7 hPa 0,0 l/m 0 min 0 min 0,0 UV-I 0 W/m 2,6 km/h (1 Bft)
19.04.2013 22:52 8,3 C 7,3 C 88 % 1027,7 hPa 0,0 l/m 0 min 0 min 0,0 UV-I 0 W/m 5,1 km/h (1 Bft)
19.04.2013 22:54 8,3 C 7,3 C 88 % 1027,7 hPa 0,0 l/m 0 min 0 min 0,0 UV-I 0 W/m 5,1 km/h (1 Bft)
19.04.2013 22:56 8,3 C 7,3 C 88 % 1027,8 hPa 0,0 l/m 0 min 0 min 0,0 UV-I 0 W/m 10,3 km/h (2 Bft)
19.04.2013 22:58 8,2 C 7,3 C 88 % 1027,7 hPa 0,0 l/m 0 min 0 min 0,0 UV-I 0 W/m 10,3 km/h (2 Bft)
19.04.2013 23:00 8,2 C 6,8 C 88 % 1027,8 hPa 0,0 l/m 0 min 0 min 0,0 UV-I 0 W/m 10,3 km/h (2 Bft)
19.04.2013 23:02 8,2 C 6,8 C 88 % 1027,8 hPa 0,0 l/m 0 min 0 min 0,0 UV-I 0 W/m 0,0 km/h (0 Bft)
19.04.2013 23:04 8,2 C 6,8 C 88 % 1027,8 hPa 0,0 l/m 0 min 0 min 0,0 UV-I 0 W/m 10,3 km/h (2 Bft)
19.04.2013 23:06 8,1 C 6,8 C 88 % 1027,8 hPa 0,0 l/m 0 min 0 min 0,0 UV-I 0 W/m 7,7 km/h (2 Bft)
19.04.2013 23:08 8,1 C 6,8 C 88 % 1027,8 hPa 0,0 l/m 0 min 0 min 0,0 UV-I 0 W/m 0,0 km/h (0 Bft)
19.04.2013 23:10 8,1 C 6,8 C 88 % 1027,9 hPa 0,0 l/m 0 min 0 min 0,0 UV-I 0 W/m 7,7 km/h (2 Bft)
19.04.2013 23:12 8,1 C 6,8 C 88 % 1027,9 hPa 0,0 l/m 0 min 0 min 0,0 UV-I 0 W/m 7,7 km/h (2 Bft)
19.04.2013 23:14 8,1 C 6,8 C 88 % 1027,9 hPa 0,0 l/m 0 min 0 min 0,0 UV-I 0 W/m 7,7 km/h (2 Bft)
19.04.2013 23:16 8,1 C 6,8 C 88 % 1027,9 hPa 0,0 l/m 0 min 0 min 0,0 UV-I 0 W/m 5,1 km/h (1 Bft)
19.04.2013 23:18 8,0 C 6,8 C 88 % 1027,9 hPa 0,0 l/m 0 min 0 min 0,0 UV-I 0 W/m 10,3 km/h (2 Bft)
19.04.2013 23:20 8,0 C 6,8 C 88 % 1027,9 hPa 0,0 l/m 0 min 0 min 0,0 UV-I 0 W/m 12,9 km/h (3 Bft)
19.04.2013 23:22 8,0 C 6,8 C 88 % 1027,9 hPa 0,0 l/m 0 min 0 min 0,0 UV-I 0 W/m 10,3 km/h (2 Bft)
19.04.2013 23:24 7,9 C 6,8 C 88 % 1027,9 hPa 0,0 l/m 0 min 0 min 0,0 UV-I 0 W/m 7,7 km/h (2 Bft)
19.04.2013 23:26 7,9 C 6,2 C 88 % 1027,9 hPa 0,0 l/m 0 min 0 min 0,0 UV-I 0 W/m 10,3 km/h (2 Bft)
19.04.2013 23:28 7,9 C 6,2 C 88 % 1028,0 hPa 0,0 l/m 0 min 0 min 0,0 UV-I 0 W/m 2,6 km/h (1 Bft)
19.04.2013 23:30 7,8 C 6,2 C 88 % 1028,0 hPa 0,0 l/m 0 min 0 min 0,0 UV-I 0 W/m 7,7 km/h (2 Bft)
19.04.2013 23:32 7,8 C 6,2 C 88 % 1027,9 hPa 0,0 l/m 0 min 0 min 0,0 UV-I 0 W/m 5,1 km/h (1 Bft)
19.04.2013 23:34 7,8 C 6,2 C 88 % 1027,9 hPa 0,0 l/m 0 min 0 min 0,0 UV-I 0 W/m 12,9 km/h (3 Bft)
19.04.2013 23:36 7,7 C 6,2 C 88 % 1027,9 hPa 0,0 l/m 0 min 0 min 0,0 UV-I 0 W/m 7,7 km/h (2 Bft)
19.04.2013 23:38 7,7 C 6,2 C 88 % 1027,9 hPa 0,0 l/m 0 min 0 min 0,0 UV-I 0 W/m 7,7 km/h (2 Bft)
19.04.2013 23:40 7,7 C 6,2 C 88 % 1027,9 hPa 0,0 l/m 0 min 0 min 0,0 UV-I 0 W/m 0,0 km/h (0 Bft)
19.04.2013 23:42 7,6 C 6,2 C 89 % 1028,1 hPa 0,0 l/m 0 min 0 min 0,0 UV-I 0 W/m 12,9 km/h (3 Bft)
19.04.2013 23:44 7,6 C 6,2 C 89 % 1028,0 hPa 0,0 l/m 0 min 0 min 0,0 UV-I 0 W/m 0,0 km/h (0 Bft)
19.04.2013 23:46 7,6 C 6,2 C 89 % 1028,1 hPa 0,0 l/m 0 min 0 min 0,0 UV-I 0 W/m 0,0 km/h (0 Bft)
19.04.2013 23:48 7,5 C 6,2 C 89 % 1028,2 hPa 0,0 l/m 0 min 0 min 0,0 UV-I 0 W/m 5,1 km/h (1 Bft)
19.04.2013 23:50 7,5 C 6,2 C 89 % 1028,2 hPa 0,0 l/m 0 min 0 min 0,0 UV-I 0 W/m 12,9 km/h (3 Bft)
19.04.2013 23:52 7,4 C 6,2 C 89 % 1028,2 hPa 0,0 l/m 0 min 0 min 0,0 UV-I 0 W/m 7,7 km/h (2 Bft)
19.04.2013 23:54 7,4 C 6,2 C 89 % 1028,2 hPa 0,0 l/m 0 min 0 min 0,0 UV-I 0 W/m 10,3 km/h (2 Bft)
19.04.2013 23:56 7,4 C 6,2 C 89 % 1028,3 hPa 0,0 l/m 0 min 0 min 0,0 UV-I 0 W/m 5,1 km/h (1 Bft)
19.04.2013 23:58 7,3 C 6,2 C 89 % 1028,2 hPa 0,0 l/m 0 min 0 min 0,0 UV-I 0 W/m 2,6 km/h (1 Bft)
_ Min-Zeit 07:26 06:06 15:58 00:00 - - - - - 00:00
Minimum _ 6,7 C 5,7 C 60 % 1017,9 hPa - - - - - 0,0 km/h (0 Bft)
_ Max-Zeit 16:12 12:50 22:36 23:56 00:00 09:22 01:52 12:56 12:36 02:50
Maximum _ 13,7 C 16,2 C 89 % 1028,3 hPa 0,0 l/m 2 min 2 min 3,1 UV-I 951 W/m 36,0 km/h
SW (5 Bft)
Durchschnitt _ 10,0 C 9,3 C 74 % 1022,9 hPa #0,0 l/m #2:00 h #8 min. 1,1 UV-I 195 W/m 9,4 km/h (2 Bft)
© 2013 W. Hausmann